Time,TemperatureF,DewpointF,PressureIn,WindDirection,WindDirectionDegrees,WindSpeedMPH,WindSpeedGustMPH,Humidity,HourlyPrecipIn,Conditions,Clouds,dailyrainin,SoftwareType,DateUTC
2013-02-28 00:00:00,39.0,38.0,29.70,East,90,0.0,0.0,96,0.00,CLR,,1.02,WeatherDisplay:10.37,2013-02-28 05:00:00,
2013-02-28 00:05:00,38.8,37.8,29.70,SE,135,0.0,0.0,96,0.00,RA,,0.00,WeatherDisplay:10.37,2013-02-28 05:05:00,
2013-02-28 00:10:00,38.7,37.6,29.70,ESE,119,0.0,0.0,96,0.00,CLR,CLR,0.00,WeatherDisplay:10.37,2013-02-28 05:10:00,
2013-02-28 00:15:00,38.7,37.6,29.70,ESE,112,0.0,0.0,96,0.00,CLR,,0.00,WeatherDisplay:10.37,2013-02-28 05:15:00,
2013-02-28 00:20:00,38.5,37.4,29.70,SSE,158,0.0,0.0,96,0.00,CLR,,0.00,WeatherDisplay:10.37,2013-02-28 05:20:00,
2013-02-28 00:21:00,38.5,37.4,29.70,SSE,158,0.0,0.0,96,0.00,CLR,,0.00,WeatherDisplay:10.37,2013-02-28 05:21:00,
2013-02-28 00:25:00,38.5,37.4,29.70,SSE,158,0.0,0.0,96,0.00,CLR,,0.00,WeatherDisplay:10.37,2013-02-28 05:25:00,
2013-02-28 00:26:00,38.5,37.4,29.70,SSE,158,0.0,0.0,96,0.00,CLR,,0.00,WeatherDisplay:10.37,2013-02-28 05:26:00,
2013-02-28 00:30:00,38.3,37.3,29.70,SSE,158,0.0,0.0,96,0.00,CLR,,0.00,WeatherDisplay:10.37,2013-02-28 05:30:00,
2013-02-28 00:31:00,38.3,37.3,29.70,SSE,158,0.0,0.0,96,0.00,CLR,,0.00,WeatherDisplay:10.37,2013-02-28 05:31:00,
2013-02-28 00:36:00,38.1,37.1,29.70,West,270,0.0,0.5,96,0.00,CLR,,0.00,WeatherDisplay:10.37,2013-02-28 05:36:00,
2013-02-28 00:41:00,38.1,37.1,29.70,West,270,0.0,0.0,96,0.00,CLR,,0.00,WeatherDisplay:10.37,2013-02-28 05:41:00,
2013-02-28 00:46:00,37.8,36.7,29.70,West,270,0.0,0.2,96,0.00,CLR,,0.00,WeatherDisplay:10.37,2013-02-28 05:46:00,
2013-02-28 00:47:00,37.8,36.7,29.70,WSW,248,0.0,0.5,96,0.00,CLR,,0.00,WeatherDisplay:10.37,2013-02-28 05:47:00,
2013-02-28 00:51:00,37.4,36.4,29.69,WSW,248,0.0,0.0,96,0.00,CLR,,0.00,WeatherDisplay:10.37,2013-02-28 05:51:00,
2013-02-28 00:52:00,37.4,36.4,29.70,WSW,248,0.0,0.2,96,0.00,CLR,,0.00,WeatherDisplay:10.37,2013-02-28 05:52:00,
2013-02-28 00:56:00,37.0,36.0,29.70,WSW,248,0.0,0.0,96,0.00,CLR,,0.00,WeatherDisplay:10.37,2013-02-28 05:56:00,
2013-02-28 00:57:00,37.0,36.0,29.70,WSW,248,0.0,0.5,96,0.00,CLR,,0.00,WeatherDisplay:10.37,2013-02-28 05:57:00,
2013-02-28 01:01:00,36.9,35.8,29.69,WSW,248,0.0,0.0,96,0.00,CLR,,0.00,WeatherDisplay:10.37,2013-02-28 06:01:00,
2013-02-28 01:02:00,36.7,35.6,29.69,WSW,248,0.0,0.2,96,0.00,CLR,,0.00,WeatherDisplay:10.37,2013-02-28 06:02:00,
2013-02-28 01:06:00,36.5,35.5,29.69,WSW,248,0.0,0.0,96,0.00,CLR,,0.00,WeatherDisplay:10.37,2013-02-28 06:06:00,
2013-02-28 01:07:00,36.5,35.5,29.69,WSW,248,0.0,0.0,96,0.00,CLR,,0.00,WeatherDisplay:10.37,2013-02-28 06:07:00,
2013-02-28 01:12:00,36.3,35.3,29.69,WSW,248,0.0,0.0,96,0.00,CLR,,0.00,WeatherDisplay:10.37,2013-02-28 06:12:00,
2013-02-28 01:17:00,36.3,35.3,29.69,WSW,248,0.0,0.0,96,0.00,CLR,,0.00,WeatherDisplay:10.37,2013-02-28 06:17:00,
2013-02-28 01:18:00,36.3,35.3,29.69,WSW,248,0.0,0.0,96,0.00,CLR,,0.00,WeatherDisplay:10.37,2013-02-28 06:18:00,
2013-02-28 01:22:00,36.1,35.1,29.68,WSW,248,0.0,0.0,96,0.00,CLR,,0.00,WeatherDisplay:10.37,2013-02-28 06:22:00,
2013-02-28 01:23:00,36.1,35.1,29.68,WSW,248,0.0,0.0,96,0.00,CLR,,0.00,WeatherDisplay:10.37,2013-02-28 06:23:00,
2013-02-28 01:27:00,36.0,34.9,29.68,WSW,248,0.0,0.0,96,0.00,CLR,,0.00,WeatherDisplay:10.37,2013-02-28 06:27:00,
2013-02-28 01:28:00,36.0,34.9,29.68,WSW,248,0.0,0.0,96,0.00,CLR,,0.00,WeatherDisplay:10.37,2013-02-28 06:28:00,
2013-02-28 01:32:00,36.0,34.9,29.68,WSW,248,0.0,0.0,96,0.00,CLR,,0.00,WeatherDisplay:10.37,2013-02-28 06:32:00,
2013-02-28 01:33:00,36.0,34.9,29.68,WSW,248,0.0,0.0,96,0.00,CLR,,0.00,WeatherDisplay:10.37,2013-02-28 06:33:00,
2013-02-28 01:34:00,36.0,34.9,29.68,WSW,248,0.0,0.0,96,0.00,CLR,,0.00,WeatherDisplay:10.37,2013-02-28 06:34:00,
2013-02-28 01:37:00,35.8,34.8,29.68,WSW,248,0.0,0.0,96,0.00,CLR,,0.00,WeatherDisplay:10.37,2013-02-28 06:37:00,
2013-02-28 01:38:00,35.8,34.8,29.68,WSW,248,0.0,0.0,96,0.00,CLR,,0.00,WeatherDisplay:10.37,2013-02-28 06:38:00,
2013-02-28 01:39:00,35.6,34.6,29.69,WSW,248,0.0,0.0,96,0.00,CLR,,0.00,WeatherDisplay:10.37,2013-02-28 06:39:00,
2013-02-28 01:42:00,35.6,34.6,29.69,WSW,248,0.0,0.0,96,0.00,CLR,,0.00,WeatherDisplay:10.37,2013-02-28 06:42:00,
2013-02-28 01:43:00,35.6,34.6,29.69,WSW,248,0.0,0.0,96,0.00,CLR,,0.00,WeatherDisplay:10.37,2013-02-28 06:43:00,
2013-02-28 01:44:00,35.6,34.6,29.69,WSW,248,0.0,0.2,96,0.00,CLR,,0.00,WeatherDisplay:10.37,2013-02-28 06:44:00,
2013-02-28 01:47:00,35.6,34.6,29.69,WSW,248,0.0,0.5,96,0.00,CLR,,0.00,WeatherDisplay:10.37,2013-02-28 06:47:00,
2013-02-28 01:48:00,35.6,34.6,29.69,WSW,248,0.0,0.5,96,0.00,CLR,,0.00,WeatherDisplay:10.37,2013-02-28 06:48:00,
2013-02-28 01:49:00,35.6,34.6,29.69,WSW,248,0.0,0.0,96,0.00,CLR,,0.00,WeatherDisplay:10.37,2013-02-28 06:49:00,
2013-02-28 01:52:00,35.4,34.4,29.69,WSW,248,0.0,0.2,96,0.00,CLR,,0.00,WeatherDisplay:10.37,2013-02-28 06:52:00,
2013-02-28 01:53:00,35.4,34.4,29.69,WSW,248,0.0,0.2,96,0.00,CLR,,0.00,WeatherDisplay:10.37,2013-02-28 06:53:00,
2013-02-28 01:54:00,35.4,34.4,29.69,WSW,248,0.0,0.2,96,0.00,CLR,,0.00,WeatherDisplay:10.37,2013-02-28 06:54:00,
2013-02-28 01:57:00,35.4,34.4,29.69,WSW,248,0.0,0.0,96,0.00,CLR,,0.00,WeatherDisplay:10.37,2013-02-28 06:57:00,
2013-02-28 01:59:00,35.4,34.4,29.68,WSW,248,0.0,0.0,96,0.00,CLR,,0.00,WeatherDisplay:10.37,2013-02-28 06:59:00,
2013-02-28 02:03:00,35.4,34.4,29.68,WSW,248,0.0,0.0,96,0.00,CLR,,0.00,WeatherDisplay:10.37,2013-02-28 07:03:00,
2013-02-28 02:04:00,35.4,34.4,29.69,WSW,248,0.0,0.0,96,0.00,CLR,,0.00,WeatherDisplay:10.37,2013-02-28 07:04:00,
2013-02-28 02:08:00,35.4,34.4,29.69,WSW,248,0.0,0.2,96,0.00,CLR,,0.00,WeatherDisplay:10.37,2013-02-28 07:08:00,
2013-02-28 02:09:00,35.4,34.4,29.69,WSW,248,0.0,0.2,96,0.00,CLR,,0.00,WeatherDisplay:10.37,2013-02-28 07:09:00,
2013-02-28 02:13:00,35.2,34.2,29.69,WNW,292,1.1,1.1,96,0.00,CLR,,0.00,WeatherDisplay:10.37,2013-02-28 07:13:00,
2013-02-28 02:14:00,35.2,34.2,29.70,NW,315,1.1,1.1,96,0.00,CLR,,0.00,WeatherDisplay:10.37,2013-02-28 07:14:00,
2013-02-28 02:18:00,35.2,34.2,29.70,NNW,338,0.0,0.5,96,0.00,CLR,,0.00,WeatherDisplay:10.37,2013-02-28 07:18:00,
2013-02-28 02:19:00,35.2,34.2,29.70,NNW,338,1.1,1.6,96,0.00,CLR,,0.00,WeatherDisplay:10.37,2013-02-28 07:19:00,
2013-02-28 02:20:00,35.2,34.2,29.70,NW,315,1.1,1.8,96,0.00,CLR,,0.00,WeatherDisplay:10.37,2013-02-28 07:20:00,
2013-02-28 02:23:00,35.2,34.2,29.70,NNW,338,1.1,1.4,96,0.00,CLR,,0.00,WeatherDisplay:10.37,2013-02-28 07:23:00,
2013-02-28 02:24:00,35.4,34.4,29.70,NNW,338,1.1,1.6,96,0.00,CLR,,0.00,WeatherDisplay:10.37,2013-02-28 07:24:00,
2013-02-28 02:25:00,35.4,34.4,29.70,NNW,338,1.1,1.1,96,0.00,CLR,,0.00,WeatherDisplay:10.37,2013-02-28 07:25:00,
2013-02-28 02:28:00,35.4,34.4,29.71,NW,315,2.3,2.3,96,0.00,CLR,,0.00,WeatherDisplay:10.37,2013-02-28 07:28:00,
2013-02-28 02:29:00,35.4,34.4,29.71,NW,315,2.3,2.3,96,0.00,CLR,,0.00,WeatherDisplay:10.37,2013-02-28 07:29:00,
2013-02-28 02:30:00,35.4,34.4,29.71,NW,315,1.1,1.1,96,0.00,CLR,,0.00,WeatherDisplay:10.37,2013-02-28 07:30:00,
2013-02-28 02:33:00,35.6,34.6,29.70,NNW,338,0.0,0.0,96,0.00,CLR,,0.00,WeatherDisplay:10.37,2013-02-28 07:33:00,
2013-02-28 02:34:00,35.6,34.6,29.70,WNW,292,0.2,0.2,96,0.00,CLR,,0.00,WeatherDisplay:10.37,2013-02-28 07:34:00,
2013-02-28 02:35:00,35.6,34.6,29.70,WNW,292,0.0,0.2,96,0.00,CLR,,0.00,WeatherDisplay:10.37,2013-02-28 07:35:00,
2013-02-28 02:39:00,35.6,34.6,29.69,West,270,0.0,0.0,96,0.00,CLR,,0.00,WeatherDisplay:10.37,2013-02-28 07:39:00,
2013-02-28 02:40:00,35.6,34.6,29.69,West,270,0.0,0.0,96,0.00,CLR,,0.00,WeatherDisplay:10.37,2013-02-28 07:40:00,
2013-02-28 02:44:00,35.4,34.4,29.69,West,270,0.0,0.0,96,0.00,CLR,,0.00,WeatherDisplay:10.37,2013-02-28 07:44:00,
2013-02-28 02:45:00,35.4,34.4,29.69,West,270,0.0,0.0,96,0.00,CLR,,0.00,WeatherDisplay:10.37,2013-02-28 07:45:00,
2013-02-28 02:50:00,35.4,34.4,29.69,West,270,0.0,0.0,96,0.00,CLR,CLR,0.00,WeatherDisplay:10.37,2013-02-28 07:50:00,
2013-02-28 02:55:00,35.4,34.4,29.69,West,270,0.0,0.0,96,0.00,CLR,,0.00,WeatherDisplay:10.37,2013-02-28 07:55:00,
2013-02-28 02:56:00,35.4,34.4,29.69,West,270,0.0,0.0,96,0.00,CLR,,0.00,WeatherDisplay:10.37,2013-02-28 07:56:00,
2013-02-28 03:00:00,35.4,34.4,29.69,West,270,0.0,0.0,96,0.00,CLR,,0.00,WeatherDisplay:10.37,2013-02-28 08:00:00,
2013-02-28 03:01:00,35.6,34.6,29.69,West,270,0.0,0.0,96,0.00,CLR,,0.00,WeatherDisplay:10.37,2013-02-28 08:01:00,
2013-02-28 03:05:00,35.6,34.6,29.70,WNW,292,0.0,0.0,96,0.00,CLR,,0.00,WeatherDisplay:10.37,2013-02-28 08:05:00,
2013-02-28 03:06:00,35.6,34.6,29.70,WNW,292,0.0,0.0,96,0.00,CLR,,0.00,WeatherDisplay:10.37,2013-02-28 08:06:00,
2013-02-28 03:10:00,35.6,34.6,29.70,NW,315,1.1,1.1,96,0.00,CLR,,0.00,WeatherDisplay:10.37,2013-02-28 08:10:00,
2013-02-28 03:11:00,35.6,34.6,29.70,NW,315,0.0,0.5,96,0.00,CLR,,0.00,WeatherDisplay:10.37,2013-02-28 08:11:00,
2013-02-28 03:12:00,35.6,34.6,29.70,NW,315,0.0,0.0,96,0.00,CLR,,0.00,WeatherDisplay:10.37,2013-02-28 08:12:00,
2013-02-28 03:15:00,35.8,34.8,29.70,NW,315,0.0,0.0,96,0.00,CLR,,0.00,WeatherDisplay:10.37,2013-02-28 08:15:00,
2013-02-28 03:16:00,35.8,34.8,29.70,NW,315,0.0,0.0,96,0.00,CLR,,0.00,WeatherDisplay:10.37,2013-02-28 08:16:00,
2013-02-28 03:17:00,35.8,34.8,29.70,NW,315,0.0,0.0,96,0.00,CLR,,0.00,WeatherDisplay:10.37,2013-02-28 08:17:00,
2013-02-28 03:20:00,36.0,34.9,29.70,NW,315,0.0,0.0,96,0.00,CLR,,0.00,WeatherDisplay:10.37,2013-02-28 08:20:00,
2013-02-28 03:21:00,36.0,34.9,29.70,NW,315,0.0,0.0,96,0.00,CLR,,0.00,WeatherDisplay:10.37,2013-02-28 08:21:00,
2013-02-28 03:22:00,36.0,34.9,29.70,NW,315,0.0,0.0,96,0.00,CLR,,0.00,WeatherDisplay:10.37,2013-02-28 08:22:00,
2013-02-28 03:26:00,35.8,34.8,29.69,NW,315,0.0,0.0,96,0.00,CLR,,0.00,WeatherDisplay:10.37,2013-02-28 08:26:00,
2013-02-28 03:27:00,35.8,34.8,29.69,NW,315,0.0,0.0,96,0.00,CLR,,0.00,WeatherDisplay:10.37,2013-02-28 08:27:00,
2013-02-28 03:31:00,35.6,34.6,29.69,NW,315,0.0,0.0,96,0.00,CLR,,0.00,WeatherDisplay:10.37,2013-02-28 08:31:00,
2013-02-28 03:32:00,35.6,34.6,29.69,NW,315,0.0,0.0,96,0.00,CLR,,0.00,WeatherDisplay:10.37,2013-02-28 08:32:00,
2013-02-28 03:37:00,35.6,34.6,29.69,NW,315,0.0,0.0,96,0.00,CLR,,0.00,WeatherDisplay:10.37,2013-02-28 08:37:00,
2013-02-28 03:42:00,35.6,34.6,29.69,NW,315,0.0,0.0,96,0.00,CLR,,0.00,WeatherDisplay:10.37,2013-02-28 08:42:00,
2013-02-28 03:47:00,35.6,34.6,29.69,NW,315,0.0,0.0,96,0.00,CLR,,0.00,WeatherDisplay:10.37,2013-02-28 08:47:00,
2013-02-28 03:52:00,35.6,34.6,29.69,NW,315,0.0,0.0,96,0.00,CLR,,0.00,WeatherDisplay:10.37,2013-02-28 08:52:00,
2013-02-28 03:57:00,35.6,34.6,29.69,NW,315,0.0,0.0,96,0.00,CLR,,0.00,WeatherDisplay:10.37,2013-02-28 08:57:00,
2013-02-28 04:02:00,35.6,34.6,29.70,North,0,0.0,0.2,96,0.00,CLR,,0.00,WeatherDisplay:10.37,2013-02-28 09:02:00,
2013-02-28 04:03:00,35.6,34.6,29.70,North,0,0.0,0.2,96,0.00,CLR,,0.00,WeatherDisplay:10.37,2013-02-28 09:03:00,
2013-02-28 04:07:00,35.6,34.6,29.70,North,0,0.0,0.2,96,0.00,CLR,,0.00,WeatherDisplay:10.37,2013-02-28 09:07:00,
2013-02-28 04:08:00,35.6,34.6,29.70,North,0,0.0,0.2,96,0.00,CLR,,0.00,WeatherDisplay:10.37,2013-02-28 09:08:00,
2013-02-28 04:13:00,35.6,34.6,29.70,North,0,0.0,0.2,96,0.00,CLR,,0.00,WeatherDisplay:10.37,2013-02-28 09:13:00,
2013-02-28 04:14:00,35.6,34.6,29.70,North,0,0.0,0.2,96,0.00,CLR,,0.00,WeatherDisplay:10.37,2013-02-28 09:14:00,
2013-02-28 04:18:00,35.6,34.6,29.70,North,0,0.0,0.2,96,0.00,CLR,,0.00,WeatherDisplay:10.37,2013-02-28 09:18:00,
2013-02-28 04:19:00,35.6,34.6,29.70,North,0,0.0,0.2,96,0.00,CLR,,0.00,WeatherDisplay:10.37,2013-02-28 09:19:00,
2013-02-28 04:23:00,35.6,34.6,29.70,North,0,0.0,0.2,96,0.00,CLR,,0.00,WeatherDisplay:10.37,2013-02-28 09:23:00,
2013-02-28 04:24:00,35.6,34.6,29.70,North,0,0.0,0.2,96,0.00,CLR,,0.00,WeatherDisplay:10.37,2013-02-28 09:24:00,
2013-02-28 04:28:00,35.6,34.6,29.70,North,0,0.0,0.2,96,0.00,CLR,,0.00,WeatherDisplay:10.37,2013-02-28 09:28:00,
2013-02-28 04:29:00,35.6,34.6,29.70,North,0,0.0,0.2,96,0.00,CLR,,0.00,WeatherDisplay:10.37,2013-02-28 09:29:00,
2013-02-28 04:33:00,36.0,34.9,29.70,NNE,22,0.0,0.0,96,0.00,CLR,,0.00,WeatherDisplay:10.37,2013-02-28 09:33:00,
2013-02-28 04:35:00,36.0,34.9,29.70,NNE,22,0.0,0.0,96,0.00,CLR,,0.00,WeatherDisplay:10.37,2013-02-28 09:35:00,
2013-02-28 04:38:00,36.0,34.9,29.70,NNE,22,0.0,0.0,96,0.00,CLR,,0.00,WeatherDisplay:10.37,2013-02-28 09:38:00,
2013-02-28 04:39:00,36.0,34.9,29.70,NNE,22,0.0,0.0,96,0.00,CLR,,0.00,WeatherDisplay:10.37,2013-02-28 09:39:00,
2013-02-28 04:40:00,36.0,34.9,29.70,NNE,22,0.0,0.0,96,0.00,CLR,,0.00,WeatherDisplay:10.37,2013-02-28 09:40:00,
2013-02-28 04:43:00,36.0,34.9,29.70,NNE,22,0.0,0.0,96,0.00,CLR,,0.00,WeatherDisplay:10.37,2013-02-28 09:43:00,
2013-02-28 04:44:00,36.0,34.9,29.70,NNE,22,0.0,0.0,96,0.00,CLR,,0.00,WeatherDisplay:10.37,2013-02-28 09:44:00,
2013-02-28 04:45:00,36.0,34.9,29.70,NNE,22,0.0,0.0,96,0.00,CLR,,0.00,WeatherDisplay:10.37,2013-02-28 09:45:00,
2013-02-28 04:48:00,36.0,34.9,29.70,NNE,22,0.0,0.0,96,0.00,CLR,,0.00,WeatherDisplay:10.37,2013-02-28 09:48:00,
2013-02-28 04:50:00,36.0,34.9,29.70,NNE,22,0.0,0.0,96,0.00,CLR,,0.00,WeatherDisplay:10.37,2013-02-28 09:50:00,
2013-02-28 04:53:00,36.0,34.9,29.70,NNE,22,0.0,0.0,96,0.00,CLR,,0.00,WeatherDisplay:10.37,2013-02-28 09:53:00,
2013-02-28 04:54:00,36.0,34.9,29.70,NNE,22,0.0,0.0,96,0.00,CLR,,0.00,WeatherDisplay:10.37,2013-02-28 09:54:00,
2013-02-28 04:55:00,36.0,34.9,29.70,NNE,22,0.0,0.0,96,0.00,CLR,,0.00,WeatherDisplay:10.37,2013-02-28 09:55:00,
2013-02-28 04:58:00,36.0,34.9,29.70,NNE,22,0.0,0.0,96,0.00,CLR,,0.00,WeatherDisplay:10.37,2013-02-28 09:58:00,
2013-02-28 04:59:00,36.0,34.9,29.70,NNE,22,0.0,0.0,96,0.00,CLR,,0.00,WeatherDisplay:10.37,2013-02-28 09:59:00,
2013-02-28 05:00:00,36.0,34.9,29.70,NNE,22,0.0,0.0,96,0.00,CLR,,0.00,WeatherDisplay:10.37,2013-02-28 10:00:00,
2013-02-28 05:03:00,36.1,35.1,29.70,ESE,112,0.0,0.0,96,0.00,CLR,,0.00,WeatherDisplay:10.37,2013-02-28 10:03:00,
2013-02-28 05:04:00,36.1,35.1,29.70,ESE,112,0.0,0.0,96,0.00,CLR,,0.00,WeatherDisplay:10.37,2013-02-28 10:04:00,
2013-02-28 05:05:00,36.1,35.1,29.70,ESE,112,0.0,0.0,96,0.00,CLR,,0.00,WeatherDisplay:10.37,2013-02-28 10:05:00,
2013-02-28 05:08:00,36.1,35.1,29.70,ESE,112,0.0,0.0,96,0.00,CLR,,0.00,WeatherDisplay:10.37,2013-02-28 10:08:00,
2013-02-28 05:09:00,36.1,35.1,29.70,ESE,112,0.0,0.0,96,0.00,CLR,,0.00,WeatherDisplay:10.37,2013-02-28 10:09:00,
2013-02-28 05:10:00,36.1,35.1,29.70,ESE,112,0.0,0.0,96,0.00,CLR,,0.00,WeatherDisplay:10.37,2013-02-28 10:10:00,
2013-02-28 05:13:00,36.1,35.1,29.70,ESE,112,0.0,0.0,96,0.00,CLR,,0.00,WeatherDisplay:10.37,2013-02-28 10:13:00,
2013-02-28 05:14:00,36.1,35.1,29.70,ESE,112,0.0,0.0,96,0.00,CLR,,0.00,WeatherDisplay:10.37,2013-02-28 10:14:00,
2013-02-28 05:15:00,36.1,35.1,29.70,ESE,112,0.0,0.0,96,0.00,CLR,,0.00,WeatherDisplay:10.37,2013-02-28 10:15:00,
2013-02-28 05:16:00,36.1,35.1,29.70,ESE,112,0.0,0.0,96,0.00,CLR,,0.00,WeatherDisplay:10.37,2013-02-28 10:16:00,
2013-02-28 05:18:00,36.1,35.1,29.70,ESE,112,0.0,0.0,96,0.00,CLR,,0.00,WeatherDisplay:10.37,2013-02-28 10:18:00,
2013-02-28 05:19:00,36.1,35.1,29.70,ESE,112,0.0,0.0,96,0.00,CLR,,0.00,WeatherDisplay:10.37,2013-02-28 10:19:00,
2013-02-28 05:20:00,36.1,35.1,29.70,ESE,112,0.0,0.0,96,0.00,CLR,,0.00,WeatherDisplay:10.37,2013-02-28 10:20:00,
2013-02-28 05:21:00,36.1,35.1,29.70,ESE,112,0.0,0.0,96,0.00,CLR,,0.00,WeatherDisplay:10.37,2013-02-28 10:21:00,
2013-02-28 05:24:00,36.1,35.1,29.70,ESE,112,0.0,0.0,96,0.00,CLR,,0.00,WeatherDisplay:10.37,2013-02-28 10:24:00,
2013-02-28 05:25:00,36.1,35.1,29.70,ESE,112,0.0,0.0,96,0.00,CLR,,0.00,WeatherDisplay:10.37,2013-02-28 10:25:00,
2013-02-28 05:26:00,36.1,35.1,29.70,ESE,112,0.0,0.0,96,0.00,CLR,,0.00,WeatherDisplay:10.37,2013-02-28 10:26:00,
2013-02-28 05:29:00,36.1,35.1,29.70,ESE,112,0.0,0.0,96,0.00,CLR,,0.00,WeatherDisplay:10.37,2013-02-28 10:29:00,
2013-02-28 05:30:00,36.1,35.1,29.70,ESE,112,0.0,0.0,96,0.00,CLR,,0.00,WeatherDisplay:10.37,2013-02-28 10:30:00,
2013-02-28 05:31:00,36.3,35.3,29.70,North,0,0.0,0.0,96,0.00,CLR,,0.00,WeatherDisplay:10.37,2013-02-28 10:31:00,
2013-02-28 05:34:00,36.3,35.3,29.70,North,0,0.0,0.0,96,0.00,CLR,,0.00,WeatherDisplay:10.37,2013-02-28 10:34:00,
2013-02-28 05:35:00,36.3,35.3,29.70,North,0,0.0,0.0,96,0.00,CLR,,0.00,WeatherDisplay:10.37,2013-02-28 10:35:00,
2013-02-28 05:36:00,36.3,35.3,29.70,North,0,0.0,0.0,96,0.00,CLR,,0.00,WeatherDisplay:10.37,2013-02-28 10:36:00,
2013-02-28 05:39:00,36.3,35.3,29.70,North,0,0.0,0.0,96,0.00,CLR,,0.00,WeatherDisplay:10.37,2013-02-28 10:39:00,
2013-02-28 05:40:00,36.3,35.3,29.70,North,0,0.0,0.0,96,0.00,CLR,,0.00,WeatherDisplay:10.37,2013-02-28 10:40:00,
2013-02-28 05:41:00,36.3,35.3,29.70,North,0,0.0,0.0,96,0.00,CLR,,0.00,WeatherDisplay:10.37,2013-02-28 10:41:00,
2013-02-28 05:44:00,36.3,35.3,29.70,North,0,0.0,0.0,96,0.00,CLR,,0.00,WeatherDisplay:10.37,2013-02-28 10:44:00,
2013-02-28 05:45:00,36.3,35.3,29.70,North,0,0.0,0.0,96,0.00,CLR,,0.00,WeatherDisplay:10.37,2013-02-28 10:45:00,
2013-02-28 05:46:00,36.3,35.3,29.70,North,0,0.0,0.0,96,0.00,CLR,,0.00,WeatherDisplay:10.37,2013-02-28 10:46:00,
2013-02-28 05:50:00,36.3,35.3,29.70,North,0,0.0,0.0,96,0.00,CLR,,0.00,WeatherDisplay:10.37,2013-02-28 10:50:00,
2013-02-28 05:51:00,36.3,35.3,29.70,North,0,0.0,0.0,96,0.00,CLR,,0.00,WeatherDisplay:10.37,2013-02-28 10:51:00,
2013-02-28 05:52:00,36.3,35.3,29.70,North,0,0.0,0.0,96,0.00,CLR,,0.00,WeatherDisplay:10.37,2013-02-28 10:52:00,
2013-02-28 05:55:00,36.3,35.3,29.70,North,0,0.0,0.0,96,0.00,CLR,,0.00,WeatherDisplay:10.37,2013-02-28 10:55:00,
2013-02-28 05:57:00,36.3,35.3,29.70,North,0,0.0,0.0,96,0.00,CLR,,0.00,WeatherDisplay:10.37,2013-02-28 10:57:00,
2013-02-28 06:00:00,36.3,35.3,29.70,North,0,0.0,0.0,96,0.00,CLR,,0.00,WeatherDisplay:10.37,2013-02-28 11:00:00,
2013-02-28 06:01:00,36.3,35.3,29.70,NE,45,0.0,0.0,96,0.00,CLR,,0.00,WeatherDisplay:10.37,2013-02-28 11:01:00,
2013-02-28 06:02:00,36.3,35.3,29.70,NE,45,0.0,0.0,96,0.00,CLR,,0.00,WeatherDisplay:10.37,2013-02-28 11:02:00,
2013-02-28 06:03:00,36.3,35.3,29.70,NE,45,0.0,0.0,96,0.00,CLR,,0.00,WeatherDisplay:10.37,2013-02-28 11:03:00,
2013-02-28 06:05:00,36.3,35.3,29.70,NE,45,0.0,0.0,96,0.00,CLR,,0.00,WeatherDisplay:10.37,2013-02-28 11:05:00,
2013-02-28 06:06:00,36.3,35.3,29.70,NE,45,0.0,0.0,96,0.00,CLR,,0.00,WeatherDisplay:10.37,2013-02-28 11:06:00,
2013-02-28 06:07:00,36.3,35.3,29.70,NE,45,0.0,0.0,96,0.00,CLR,,0.00,WeatherDisplay:10.37,2013-02-28 11:07:00,
2013-02-28 06:08:00,36.3,35.3,29.70,NE,45,0.0,0.0,96,0.00,CLR,,0.00,WeatherDisplay:10.37,2013-02-28 11:08:00,
2013-02-28 06:11:00,36.3,35.3,29.70,NE,45,0.0,0.0,96,0.00,CLR,,0.00,WeatherDisplay:10.37,2013-02-28 11:11:00,
2013-02-28 06:12:00,36.3,35.3,29.70,NE,45,0.0,0.0,96,0.00,CLR,,0.00,WeatherDisplay:10.37,2013-02-28 11:12:00,
2013-02-28 06:13:00,36.3,35.3,29.70,NE,45,0.0,0.0,96,0.00,CLR,,0.00,WeatherDisplay:10.37,2013-02-28 11:13:00,
2013-02-28 06:16:00,36.3,35.3,29.70,NE,45,0.0,0.0,96,0.00,CLR,,0.00,WeatherDisplay:10.37,2013-02-28 11:16:00,
2013-02-28 06:17:00,36.3,35.3,29.70,NE,45,0.0,0.0,96,0.00,CLR,,0.00,WeatherDisplay:10.37,2013-02-28 11:17:00,
2013-02-28 06:18:00,36.3,35.3,29.70,NE,45,0.0,0.0,96,0.00,CLR,,0.00,WeatherDisplay:10.37,2013-02-28 11:18:00,
2013-02-28 06:21:00,36.3,35.3,29.70,NE,45,0.0,0.0,96,0.00,CLR,,0.00,WeatherDisplay:10.37,2013-02-28 11:21:00,
2013-02-28 06:23:00,36.3,35.3,29.70,NE,45,0.0,0.0,96,0.00,CLR,,0.00,WeatherDisplay:10.37,2013-02-28 11:23:00,
2013-02-28 06:26:00,36.3,35.3,29.70,NE,45,0.0,0.0,96,0.00,CLR,,0.00,WeatherDisplay:10.37,2013-02-28 11:26:00,
2013-02-28 06:27:00,36.3,35.3,29.70,NE,45,0.0,0.0,96,0.00,CLR,,0.00,WeatherDisplay:10.37,2013-02-28 11:27:00,
2013-02-28 06:28:00,36.3,35.3,29.70,NE,45,0.0,0.0,96,0.00,CLR,,0.00,WeatherDisplay:10.37,2013-02-28 11:28:00,
2013-02-28 06:31:00,36.3,35.3,29.69,ENE,68,0.0,0.0,96,0.00,CLR,,0.00,WeatherDisplay:10.37,2013-02-28 11:31:00,
2013-02-28 06:32:00,36.3,35.3,29.69,ENE,68,0.0,0.0,96,0.00,CLR,,0.00,WeatherDisplay:10.37,2013-02-28 11:32:00,
2013-02-28 06:33:00,36.3,35.3,29.69,ENE,68,0.0,0.0,96,0.00,CLR,,0.00,WeatherDisplay:10.37,2013-02-28 11:33:00,
2013-02-28 06:36:00,36.3,35.3,29.69,ENE,68,0.0,0.0,96,0.00,CLR,,0.00,WeatherDisplay:10.37,2013-02-28 11:36:00,
2013-02-28 06:37:00,36.3,35.3,29.69,ENE,68,0.0,0.0,96,0.00,CLR,,0.00,WeatherDisplay:10.37,2013-02-28 11:37:00,
2013-02-28 06:38:00,36.3,35.3,29.69,ENE,68,0.0,0.0,96,0.00,CLR,,0.00,WeatherDisplay:10.37,2013-02-28 11:38:00,
2013-02-28 06:39:00,36.3,35.3,29.69,ENE,68,0.0,0.0,96,0.00,CLR,,0.00,WeatherDisplay:10.37,2013-02-28 11:39:00,
2013-02-28 06:41:00,36.3,35.3,29.69,ENE,68,0.0,0.0,96,0.00,CLR,,0.00,WeatherDisplay:10.37,2013-02-28 11:41:00,
2013-02-28 06:42:00,36.3,35.3,29.69,ENE,68,0.0,0.0,96,0.00,CLR,,0.00,WeatherDisplay:10.37,2013-02-28 11:42:00,
2013-02-28 06:43:00,36.3,35.3,29.69,ENE,68,0.0,0.0,96,0.00,CLR,,0.00,WeatherDisplay:10.37,2013-02-28 11:43:00,
2013-02-28 06:44:00,36.3,35.3,29.69,ENE,68,0.0,0.0,96,0.00,CLR,,0.00,WeatherDisplay:10.37,2013-02-28 11:44:00,
2013-02-28 06:46:00,36.3,35.3,29.69,ENE,68,0.0,0.0,96,0.00,CLR,,0.00,WeatherDisplay:10.37,2013-02-28 11:46:00,
2013-02-28 06:47:00,36.3,35.3,29.69,ENE,68,0.0,0.0,96,0.00,CLR,,0.00,WeatherDisplay:10.37,2013-02-28 11:47:00,
2013-02-28 06:48:00,36.3,35.3,29.69,ENE,68,0.0,0.0,96,0.00,CLR,,0.00,WeatherDisplay:10.37,2013-02-28 11:48:00,
2013-02-28 06:49:00,36.3,35.3,29.69,ENE,68,0.0,0.0,96,0.00,CLR,,0.00,WeatherDisplay:10.37,2013-02-28 11:49:00,
2013-02-28 06:52:00,36.3,35.3,29.69,ENE,68,0.0,0.0,96,0.00,CLR,,0.00,WeatherDisplay:10.37,2013-02-28 11:52:00,
2013-02-28 06:54:00,36.3,35.3,29.69,ENE,68,0.0,0.0,96,0.00,CLR,,0.00,WeatherDisplay:10.37,2013-02-28 11:54:00,
2013-02-28 06:57:00,36.3,35.3,29.69,ENE,68,0.0,0.0,96,0.00,CLR,,0.00,WeatherDisplay:10.37,2013-02-28 11:57:00,
2013-02-28 06:59:00,36.3,35.3,29.69,ENE,68,0.0,0.0,96,0.00,CLR,,0.00,WeatherDisplay:10.37,2013-02-28 11:59:00,
2013-02-28 07:02:00,36.5,35.5,29.69,ENE,68,0.0,0.0,96,0.00,CLR,,0.00,WeatherDisplay:10.37,2013-02-28 12:02:00,
2013-02-28 07:04:00,36.5,35.5,29.69,ENE,68,0.0,0.0,96,0.00,CLR,,0.00,WeatherDisplay:10.37,2013-02-28 12:04:00,
2013-02-28 07:07:00,36.5,35.5,29.69,ENE,68,0.0,0.0,96,0.00,CLR,,0.00,WeatherDisplay:10.37,2013-02-28 12:07:00,
2013-02-28 07:09:00,36.5,35.5,29.69,ENE,68,0.0,0.0,96,0.00,CLR,,0.00,WeatherDisplay:10.37,2013-02-28 12:09:00,
2013-02-28 07:12:00,36.5,35.5,29.69,ENE,68,0.0,0.0,96,0.00,CLR,,0.00,WeatherDisplay:10.37,2013-02-28 12:12:00,
2013-02-28 07:13:00,36.5,35.5,29.69,ENE,68,0.0,0.0,96,0.00,CLR,,0.00,WeatherDisplay:10.37,2013-02-28 12:13:00,
2013-02-28 07:14:00,36.5,35.5,29.69,ENE,68,0.0,0.0,96,0.00,CLR,,0.00,WeatherDisplay:10.37,2013-02-28 12:14:00,
2013-02-28 07:17:00,36.5,35.5,29.69,ENE,68,0.0,0.0,96,0.00,CLR,,0.00,WeatherDisplay:10.37,2013-02-28 12:17:00,
2013-02-28 07:18:00,36.5,35.5,29.69,ENE,68,0.0,0.0,96,0.00,CLR,,0.00,WeatherDisplay:10.37,2013-02-28 12:18:00,
2013-02-28 07:19:00,36.5,35.5,29.69,ENE,68,0.0,0.0,96,0.00,CLR,,0.00,WeatherDisplay:10.37,2013-02-28 12:19:00,
2013-02-28 07:23:00,36.5,35.5,29.69,ENE,68,0.0,0.0,96,0.00,CLR,,0.00,WeatherDisplay:10.37,2013-02-28 12:23:00,
2013-02-28 07:25:00,36.5,35.5,29.69,ENE,68,0.0,0.0,96,0.00,CLR,,0.00,WeatherDisplay:10.37,2013-02-28 12:25:00,
2013-02-28 07:28:00,36.5,35.5,29.69,ENE,68,0.0,0.0,96,0.00,CLR,,0.00,WeatherDisplay:10.37,2013-02-28 12:28:00,
2013-02-28 07:30:00,36.5,35.5,29.69,ENE,68,0.0,0.0,96,0.00,CLR,,0.00,WeatherDisplay:10.37,2013-02-28 12:30:00,
2013-02-28 07:33:00,37.0,36.0,29.69,North,0,0.0,0.0,96,0.00,CLR,,0.00,WeatherDisplay:10.37,2013-02-28 12:33:00,
2013-02-28 07:35:00,37.0,36.0,29.69,NNE,32,0.0,0.0,96,0.00,CLR,CLR,0.00,WeatherDisplay:10.37,2013-02-28 12:35:00,
2013-02-28 07:38:00,37.0,36.0,29.69,North,0,0.0,0.0,96,0.00,CLR,,0.00,WeatherDisplay:10.37,2013-02-28 12:38:00,
2013-02-28 07:40:00,37.0,36.0,29.69,North,0,0.0,0.0,96,0.00,CLR,,0.00,WeatherDisplay:10.37,2013-02-28 12:40:00,
2013-02-28 07:43:00,37.0,36.0,29.69,North,0,0.0,0.0,96,0.00,CLR,,0.00,WeatherDisplay:10.37,2013-02-28 12:43:00,
2013-02-28 07:45:00,37.0,36.0,29.69,North,0,0.0,0.0,96,0.00,CLR,,0.00,WeatherDisplay:10.37,2013-02-28 12:45:00,
2013-02-28 07:48:00,37.0,36.0,29.69,North,0,0.0,0.0,96,0.00,CLR,,0.00,WeatherDisplay:10.37,2013-02-28 12:48:00,
2013-02-28 07:50:00,37.0,36.0,29.69,North,0,0.0,0.0,96,0.00,CLR,CLR,0.00,WeatherDisplay:10.37,2013-02-28 12:50:00,
2013-02-28 07:53:00,37.0,36.0,29.69,North,0,0.0,0.0,96,0.00,CLR,,0.00,WeatherDisplay:10.37,2013-02-28 12:53:00,
2013-02-28 07:55:00,37.0,36.0,29.69,North,0,0.0,0.0,96,0.00,CLR,,0.00,WeatherDisplay:10.37,2013-02-28 12:55:00,
2013-02-28 07:58:00,37.0,36.0,29.69,North,0,0.0,0.0,96,0.00,CLR,,0.00,WeatherDisplay:10.37,2013-02-28 12:58:00,
2013-02-28 08:00:00,37.0,36.0,29.69,North,0,0.0,0.0,96,0.00,CLR,,0.00,WeatherDisplay:10.37,2013-02-28 13:00:00,
2013-02-28 08:03:00,37.6,36.5,29.69,ENE,68,0.0,0.0,96,0.00,CLR,,0.00,WeatherDisplay:10.37,2013-02-28 13:03:00,
2013-02-28 08:04:00,37.6,36.5,29.69,ENE,68,0.0,0.0,96,0.00,CLR,,0.00,WeatherDisplay:10.37,2013-02-28 13:04:00,
2013-02-28 08:05:00,37.6,36.5,29.69,ENE,68,0.0,0.0,96,0.00,CLR,,0.00,WeatherDisplay:10.37,2013-02-28 13:05:00,
2013-02-28 08:08:00,37.6,36.5,29.69,ENE,68,0.0,0.0,96,0.00,CLR,,0.00,WeatherDisplay:10.37,2013-02-28 13:08:00,
2013-02-28 08:09:00,37.6,36.5,29.69,ENE,68,0.0,0.0,96,0.00,CLR,,0.00,WeatherDisplay:10.37,2013-02-28 13:09:00,
2013-02-28 08:10:00,37.6,36.5,29.69,ENE,68,0.0,0.0,96,0.00,CLR,,0.00,WeatherDisplay:10.37,2013-02-28 13:10:00,
2013-02-28 08:14:00,37.6,36.5,29.69,ENE,68,0.0,0.0,96,0.00,CLR,,0.00,WeatherDisplay:10.37,2013-02-28 13:14:00,
2013-02-28 08:15:00,37.6,36.5,29.69,ENE,68,0.0,0.0,96,0.00,CLR,,0.00,WeatherDisplay:10.37,2013-02-28 13:15:00,
2013-02-28 08:16:00,37.6,36.5,29.69,ENE,68,0.0,0.0,96,0.00,CLR,,0.00,WeatherDisplay:10.37,2013-02-28 13:16:00,
2013-02-28 08:19:00,37.6,36.5,29.69,ENE,68,0.0,0.0,96,0.00,CLR,,0.00,WeatherDisplay:10.37,2013-02-28 13:19:00,
2013-02-28 08:20:00,37.6,36.5,29.69,ENE,68,0.0,0.0,96,0.00,CLR,,0.00,WeatherDisplay:10.37,2013-02-28 13:20:00,
2013-02-28 08:21:00,37.6,36.5,29.69,ENE,68,0.0,0.0,96,0.00,CLR,,0.00,WeatherDisplay:10.37,2013-02-28 13:21:00,
2013-02-28 08:24:00,37.6,36.5,29.69,ENE,68,0.0,0.0,96,0.00,CLR,,0.00,WeatherDisplay:10.37,2013-02-28 13:24:00,
2013-02-28 08:26:00,37.6,36.5,29.69,ENE,68,0.0,0.0,96,0.00,CLR,,0.00,WeatherDisplay:10.37,2013-02-28 13:26:00,
2013-02-28 08:29:00,37.6,36.5,29.69,ENE,68,0.0,0.0,96,0.00,CLR,,0.00,WeatherDisplay:10.37,2013-02-28 13:29:00,
2013-02-28 08:31:00,38.5,37.4,29.69,North,0,0.0,0.2,96,0.00,CLR,,0.00,WeatherDisplay:10.37,2013-02-28 13:31:00,
2013-02-28 08:34:00,38.5,37.4,29.69,North,0,0.0,0.2,96,0.00,CLR,,0.00,WeatherDisplay:10.37,2013-02-28 13:34:00,
2013-02-28 08:36:00,38.5,37.4,29.69,North,0,0.0,0.2,96,0.00,CLR,,0.00,WeatherDisplay:10.37,2013-02-28 13:36:00,
2013-02-28 08:39:00,38.5,37.4,29.69,North,0,0.2,0.2,96,0.00,CLR,,0.00,WeatherDisplay:10.37,2013-02-28 13:39:00,
2013-02-28 08:41:00,38.5,37.4,29.69,North,0,0.0,0.2,96,0.00,CLR,,0.00,WeatherDisplay:10.37,2013-02-28 13:41:00,
2013-02-28 08:44:00,38.5,37.4,29.69,North,0,0.2,0.2,96,0.00,CLR,,0.00,WeatherDisplay:10.37,2013-02-28 13:44:00,
2013-02-28 08:46:00,38.5,37.4,29.69,North,0,0.0,0.2,96,0.00,CLR,,0.00,WeatherDisplay:10.37,2013-02-28 13:46:00,
2013-02-28 08:47:00,38.5,37.4,29.69,North,0,0.0,0.2,96,0.00,CLR,,0.00,WeatherDisplay:10.37,2013-02-28 13:47:00,
2013-02-28 08:50:00,38.5,37.4,29.69,North,0,0.0,0.0,96,0.00,CLR,CLR,0.00,WeatherDisplay:10.37,2013-02-28 13:50:00,
2013-02-28 08:51:00,38.5,37.4,29.69,North,0,0.0,0.2,96,0.00,CLR,,0.00,WeatherDisplay:10.37,2013-02-28 13:51:00,
2013-02-28 08:52:00,38.5,37.4,29.69,North,0,0.0,0.2,96,0.00,CLR,,0.00,WeatherDisplay:10.37,2013-02-28 13:52:00,
2013-02-28 08:55:00,38.5,37.4,29.69,North,0,0.0,0.2,96,0.00,CLR,,0.00,WeatherDisplay:10.37,2013-02-28 13:55:00,
2013-02-28 08:56:00,38.5,37.4,29.69,North,0,0.0,0.2,96,0.00,CLR,,0.00,WeatherDisplay:10.37,2013-02-28 13:56:00,
2013-02-28 08:57:00,38.5,37.4,29.69,North,0,0.2,0.2,96,0.00,CLR,,0.00,WeatherDisplay:10.37,2013-02-28 13:57:00,
2013-02-28 09:00:00,38.5,37.4,29.69,North,0,0.0,0.2,96,0.00,CLR,,0.00,WeatherDisplay:10.37,2013-02-28 14:00:00,
2013-02-28 09:01:00,39.2,38.2,29.70,NNW,338,0.0,0.0,96,0.00,CLR,,0.00,WeatherDisplay:10.37,2013-02-28 14:01:00,
2013-02-28 09:03:00,39.2,38.2,29.70,NNW,338,0.0,0.0,96,0.00,CLR,,0.00,WeatherDisplay:10.37,2013-02-28 14:03:00,
2013-02-28 09:05:00,39.2,38.2,29.70,NNW,338,0.0,0.0,96,0.00,CLR,,0.00,WeatherDisplay:10.37,2013-02-28 14:05:00,
2013-02-28 09:06:00,39.2,38.2,29.70,NNW,338,0.0,0.0,96,0.00,CLR,,0.00,WeatherDisplay:10.37,2013-02-28 14:06:00,
2013-02-28 09:08:00,39.2,38.2,29.70,NNW,338,0.0,0.0,96,0.00,CLR,,0.00,WeatherDisplay:10.37,2013-02-28 14:08:00,
2013-02-28 09:10:00,39.2,38.2,29.70,NNW,338,0.0,0.0,96,0.00,CLR,,0.00,WeatherDisplay:10.37,2013-02-28 14:10:00,
2013-02-28 09:11:00,39.2,38.2,29.70,NNW,338,0.0,0.0,96,0.00,CLR,,0.00,WeatherDisplay:10.37,2013-02-28 14:11:00,
2013-02-28 09:13:00,39.2,38.2,29.70,NNW,338,0.0,0.0,96,0.00,CLR,,0.00,WeatherDisplay:10.37,2013-02-28 14:13:00,
2013-02-28 09:16:00,39.2,38.2,29.70,NNW,338,0.0,0.0,96,0.00,CLR,,0.00,WeatherDisplay:10.37,2013-02-28 14:16:00,
2013-02-28 09:17:00,39.2,38.2,29.70,NNW,338,0.0,0.0,96,0.00,CLR,,0.00,WeatherDisplay:10.37,2013-02-28 14:17:00,
2013-02-28 09:18:00,39.2,38.2,29.70,NNW,338,0.0,0.0,96,0.00,CLR,,0.00,WeatherDisplay:10.37,2013-02-28 14:18:00,
2013-02-28 09:21:00,39.2,38.2,29.70,NNW,338,0.0,0.0,96,0.00,CLR,,0.00,WeatherDisplay:10.37,2013-02-28 14:21:00,
2013-02-28 09:22:00,39.2,38.2,29.70,NNW,338,0.0,0.0,96,0.00,CLR,,0.00,WeatherDisplay:10.37,2013-02-28 14:22:00,
2013-02-28 09:23:00,39.2,38.2,29.70,NNW,338,0.0,0.0,96,0.00,CLR,,0.00,WeatherDisplay:10.37,2013-02-28 14:23:00,
2013-02-28 09:26:00,39.2,38.2,29.70,NNW,338,0.0,0.0,96,0.00,CLR,,0.00,WeatherDisplay:10.37,2013-02-28 14:26:00,
2013-02-28 09:27:00,39.2,38.2,29.70,NNW,338,0.0,0.0,96,0.00,CLR,,0.00,WeatherDisplay:10.37,2013-02-28 14:27:00,
2013-02-28 09:28:00,39.2,38.2,29.70,NNW,338,0.0,0.0,96,0.00,CLR,,0.00,WeatherDisplay:10.37,2013-02-28 14:28:00,
2013-02-28 09:31:00,41.0,39.9,29.71,NNW,338,0.0,0.0,96,0.00,CLR,,0.00,WeatherDisplay:10.37,2013-02-28 14:31:00,
2013-02-28 09:32:00,41.0,39.9,29.71,NNW,338,0.0,0.0,96,0.00,CLR,,0.00,WeatherDisplay:10.37,2013-02-28 14:32:00,
2013-02-28 09:34:00,41.0,39.9,29.71,NNW,338,0.0,0.0,96,0.00,CLR,,0.00,WeatherDisplay:10.37,2013-02-28 14:34:00,
2013-02-28 09:36:00,41.0,39.9,29.71,NNW,338,0.0,0.0,96,0.00,CLR,,0.00,WeatherDisplay:10.37,2013-02-28 14:36:00,
2013-02-28 09:37:00,41.0,39.9,29.71,NNW,338,0.0,0.0,96,0.00,CLR,,0.00,WeatherDisplay:10.37,2013-02-28 14:37:00,
2013-02-28 09:38:00,41.0,39.9,29.71,NNW,338,0.0,0.0,96,0.00,CLR,,0.00,WeatherDisplay:10.37,2013-02-28 14:38:00,
2013-02-28 09:39:00,41.0,39.9,29.71,NNW,338,0.0,0.0,96,0.00,CLR,,0.00,WeatherDisplay:10.37,2013-02-28 14:39:00,
2013-02-28 09:41:00,41.0,39.9,29.71,NNW,338,0.0,0.0,96,0.00,CLR,,0.00,WeatherDisplay:10.37,2013-02-28 14:41:00,
2013-02-28 09:42:00,41.0,39.9,29.71,NNW,338,0.0,0.0,96,0.00,CLR,,0.00,WeatherDisplay:10.37,2013-02-28 14:42:00,
2013-02-28 09:43:00,41.0,39.9,29.71,NNW,338,0.0,0.0,96,0.00,CLR,,0.00,WeatherDisplay:10.37,2013-02-28 14:43:00,
2013-02-28 09:44:00,41.0,39.9,29.71,NNW,338,0.0,0.0,96,0.00,CLR,,0.00,WeatherDisplay:10.37,2013-02-28 14:44:00,
2013-02-28 09:47:00,41.0,39.9,29.71,NNW,338,0.0,0.0,96,0.00,CLR,,0.00,WeatherDisplay:10.37,2013-02-28 14:47:00,
2013-02-28 09:48:00,41.0,39.9,29.71,NNW,338,0.0,0.0,96,0.00,CLR,,0.00,WeatherDisplay:10.37,2013-02-28 14:48:00,
2013-02-28 09:49:00,41.0,39.9,29.71,NNW,338,0.0,0.0,96,0.00,CLR,,0.00,WeatherDisplay:10.37,2013-02-28 14:49:00,
2013-02-28 09:52:00,41.0,39.9,29.71,NNW,338,0.0,0.0,96,0.00,CLR,,0.00,WeatherDisplay:10.37,2013-02-28 14:52:00,
2013-02-28 09:53:00,41.0,39.9,29.71,NNW,338,0.0,0.0,96,0.00,CLR,,0.00,WeatherDisplay:10.37,2013-02-28 14:53:00,
2013-02-28 09:54:00,41.0,39.9,29.71,NNW,338,0.0,0.0,96,0.00,CLR,,0.00,WeatherDisplay:10.37,2013-02-28 14:54:00,
2013-02-28 09:57:00,41.0,39.9,29.71,NNW,338,0.0,0.0,96,0.00,CLR,,0.00,WeatherDisplay:10.37,2013-02-28 14:57:00,
2013-02-28 09:58:00,41.0,39.9,29.71,NNW,338,0.0,0.0,96,0.00,CLR,,0.00,WeatherDisplay:10.37,2013-02-28 14:58:00,
2013-02-28 09:59:00,41.0,39.9,29.71,NNW,338,0.0,0.0,96,0.00,CLR,,0.00,WeatherDisplay:10.37,2013-02-28 14:59:00,
2013-02-28 10:02:00,42.8,42.0,29.70,NNW,338,0.0,0.5,97,0.00,CLR,,0.00,WeatherDisplay:10.37,2013-02-28 15:02:00,
2013-02-28 10:04:00,42.8,42.0,29.70,NNW,338,0.0,0.5,97,0.00,CLR,,0.00,WeatherDisplay:10.37,2013-02-28 15:04:00,
2013-02-28 10:05:00,42.8,42.0,29.70,NNW,338,0.0,0.5,97,0.00,CLR,,0.00,WeatherDisplay:10.37,2013-02-28 15:05:00,
2013-02-28 10:07:00,42.8,42.0,29.70,NNW,338,0.0,0.5,97,0.00,CLR,,0.00,WeatherDisplay:10.37,2013-02-28 15:07:00,
2013-02-28 10:08:00,42.8,42.0,29.70,NNW,338,0.0,0.5,97,0.00,CLR,,0.00,WeatherDisplay:10.37,2013-02-28 15:08:00,
2013-02-28 10:09:00,42.8,42.0,29.70,NNW,338,0.0,0.5,97,0.00,CLR,,0.00,WeatherDisplay:10.37,2013-02-28 15:09:00,
2013-02-28 10:10:00,42.8,42.0,29.70,NNW,338,0.0,0.5,97,0.00,CLR,,0.00,WeatherDisplay:10.37,2013-02-28 15:10:00,
2013-02-28 10:12:00,42.8,42.0,29.70,NNW,338,0.0,0.5,97,0.00,CLR,,0.00,WeatherDisplay:10.37,2013-02-28 15:12:00,
2013-02-28 10:13:00,42.8,42.0,29.70,NNW,338,0.0,0.5,97,0.00,CLR,,0.00,WeatherDisplay:10.37,2013-02-28 15:13:00,
2013-02-28 10:14:00,42.8,42.0,29.70,NNW,338,0.0,0.5,97,0.00,CLR,,0.00,WeatherDisplay:10.37,2013-02-28 15:14:00,
2013-02-28 10:15:00,42.8,42.0,29.70,NNW,338,0.0,0.0,97,0.00,CLR,CLR,0.00,WeatherDisplay:10.37,2013-02-28 15:15:00,
2013-02-28 10:17:00,42.8,42.0,29.70,NNW,338,0.0,0.5,97,0.00,CLR,,0.00,WeatherDisplay:10.37,2013-02-28 15:17:00,
2013-02-28 10:18:00,42.8,42.0,29.70,NNW,338,0.0,0.5,97,0.00,CLR,,0.00,WeatherDisplay:10.37,2013-02-28 15:18:00,
2013-02-28 10:19:00,42.8,42.0,29.70,NNW,338,0.0,0.5,97,0.00,CLR,,0.00,WeatherDisplay:10.37,2013-02-28 15:19:00,
2013-02-28 10:20:00,42.8,42.0,29.70,NNW,338,0.0,0.5,97,0.00,CLR,,0.00,WeatherDisplay:10.37,2013-02-28 15:20:00,
2013-02-28 10:22:00,42.8,42.0,29.70,NNW,338,0.0,0.5,97,0.00,CLR,,0.00,WeatherDisplay:10.37,2013-02-28 15:22:00,
2013-02-28 10:23:00,42.8,42.0,29.70,NNW,338,0.0,0.5,97,0.00,CLR,,0.00,WeatherDisplay:10.37,2013-02-28 15:23:00,
2013-02-28 10:24:00,42.8,42.0,29.70,NNW,338,0.0,0.5,97,0.00,CLR,,0.00,WeatherDisplay:10.37,2013-02-28 15:24:00,
2013-02-28 10:26:00,42.8,42.0,29.70,NNW,338,0.0,0.5,97,0.00,CLR,,0.00,WeatherDisplay:10.37,2013-02-28 15:26:00,
2013-02-28 10:27:00,42.8,42.0,29.70,NNW,338,0.0,0.5,97,0.00,CLR,,0.00,WeatherDisplay:10.37,2013-02-28 15:27:00,
2013-02-28 10:28:00,42.8,42.0,29.70,NNW,338,0.0,0.5,97,0.00,CLR,,0.00,WeatherDisplay:10.37,2013-02-28 15:28:00,
2013-02-28 10:29:00,42.8,42.0,29.70,NNW,338,0.0,0.5,97,0.00,CLR,,0.00,WeatherDisplay:10.37,2013-02-28 15:29:00,
2013-02-28 10:31:00,43.2,42.1,29.69,NNW,338,0.0,0.9,96,0.00,CLR,,0.00,WeatherDisplay:10.37,2013-02-28 15:31:00,
2013-02-28 10:32:00,43.2,42.1,29.69,NNW,338,1.1,1.1,96,0.00,CLR,,0.00,WeatherDisplay:10.37,2013-02-28 15:32:00,
2013-02-28 10:33:00,43.2,42.1,29.69,NNW,338,1.1,1.1,96,0.00,CLR,,0.00,WeatherDisplay:10.37,2013-02-28 15:33:00,
2013-02-28 10:34:00,43.2,42.1,29.69,NNW,338,1.1,1.1,96,0.00,CLR,,0.00,WeatherDisplay:10.37,2013-02-28 15:34:00,
2013-02-28 10:36:00,43.2,42.1,29.69,NNW,338,1.1,1.1,96,0.00,CLR,,0.00,WeatherDisplay:10.37,2013-02-28 15:36:00,
2013-02-28 10:37:00,43.2,42.1,29.69,NNW,338,1.1,1.1,96,0.00,CLR,,0.00,WeatherDisplay:10.37,2013-02-28 15:37:00,
2013-02-28 10:38:00,43.2,42.1,29.69,NNW,338,1.1,1.1,96,0.00,CLR,,0.00,WeatherDisplay:10.37,2013-02-28 15:38:00,
2013-02-28 10:39:00,43.2,42.1,29.69,NNW,338,1.1,1.1,96,0.00,CLR,,0.00,WeatherDisplay:10.37,2013-02-28 15:39:00,
2013-02-28 10:41:00,43.2,42.1,29.69,NNW,338,1.1,1.1,96,0.00,CLR,,0.00,WeatherDisplay:10.37,2013-02-28 15:41:00,
2013-02-28 10:43:00,43.2,42.1,29.69,NNW,338,1.1,1.1,96,0.00,CLR,,0.00,WeatherDisplay:10.37,2013-02-28 15:43:00,
2013-02-28 10:44:00,43.2,42.1,29.69,NNW,338,1.1,1.1,96,0.00,CLR,,0.00,WeatherDisplay:10.37,2013-02-28 15:44:00,
2013-02-28 10:45:00,43.2,42.1,29.69,NNW,338,1.1,1.1,96,0.00,CLR,,0.00,WeatherDisplay:10.37,2013-02-28 15:45:00,
2013-02-28 10:47:00,43.2,42.1,29.69,NNW,338,1.1,1.1,96,0.00,CLR,,0.00,WeatherDisplay:10.37,2013-02-28 15:47:00,
2013-02-28 10:48:00,43.2,42.1,29.69,NNW,338,1.1,1.1,96,0.00,CLR,,0.00,WeatherDisplay:10.37,2013-02-28 15:48:00,
2013-02-28 10:49:00,43.2,42.1,29.69,NNW,338,1.1,1.1,96,0.00,CLR,,0.00,WeatherDisplay:10.37,2013-02-28 15:49:00,
2013-02-28 10:50:00,43.2,42.1,29.69,NNW,338,1.1,1.1,96,0.00,CLR,,0.00,WeatherDisplay:10.37,2013-02-28 15:50:00,
2013-02-28 10:53:00,43.2,42.1,29.69,NNW,338,1.1,1.1,96,0.00,CLR,,0.00,WeatherDisplay:10.37,2013-02-28 15:53:00,
2013-02-28 10:54:00,43.2,42.1,29.69,NNW,338,1.1,1.1,96,0.00,CLR,,0.00,WeatherDisplay:10.37,2013-02-28 15:54:00,
2013-02-28 10:55:00,43.2,42.1,29.69,NNW,338,1.1,1.1,96,0.00,CLR,,0.00,WeatherDisplay:10.37,2013-02-28 15:55:00,
2013-02-28 10:58:00,43.2,42.1,29.69,NNW,338,1.1,1.1,96,0.00,CLR,,0.00,WeatherDisplay:10.37,2013-02-28 15:58:00,
2013-02-28 10:59:00,43.2,42.1,29.69,NNW,338,1.1,1.1,96,0.00,CLR,,0.00,WeatherDisplay:10.37,2013-02-28 15:59:00,
2013-02-28 11:00:00,43.2,42.1,29.69,NNW,338,1.1,1.1,96,0.00,CLR,,0.00,WeatherDisplay:10.37,2013-02-28 16:00:00,
2013-02-28 11:03:00,44.8,43.7,29.69,SE,135,1.1,1.1,96,0.00,CLR,,0.00,WeatherDisplay:10.37,2013-02-28 16:03:00,
2013-02-28 11:04:00,44.8,43.7,29.69,SE,135,1.1,1.1,96,0.00,CLR,,0.00,WeatherDisplay:10.37,2013-02-28 16:04:00,
2013-02-28 11:05:00,44.8,43.7,29.69,SE,135,1.1,1.1,96,0.00,CLR,,0.00,WeatherDisplay:10.37,2013-02-28 16:05:00,
2013-02-28 11:08:00,44.8,43.7,29.69,SE,135,1.1,1.1,96,0.00,CLR,,0.00,WeatherDisplay:10.37,2013-02-28 16:08:00,
2013-02-28 11:09:00,44.8,43.7,29.69,SE,135,1.1,1.1,96,0.00,CLR,,0.00,WeatherDisplay:10.37,2013-02-28 16:09:00,
2013-02-28 11:11:00,44.8,43.7,29.69,SE,135,1.1,1.1,96,0.00,CLR,,0.00,WeatherDisplay:10.37,2013-02-28 16:11:00,
2013-02-28 11:13:00,44.8,43.7,29.69,SE,135,1.1,1.1,96,0.00,CLR,,0.00,WeatherDisplay:10.37,2013-02-28 16:13:00,
2013-02-28 11:14:00,44.8,43.7,29.69,SE,135,1.1,1.1,96,0.00,CLR,,0.00,WeatherDisplay:10.37,2013-02-28 16:14:00,
2013-02-28 11:16:00,44.8,43.7,29.69,SE,135,1.1,1.1,96,0.00,CLR,,0.00,WeatherDisplay:10.37,2013-02-28 16:16:00,
2013-02-28 11:19:00,44.8,43.7,29.69,SE,135,1.1,1.1,96,0.00,CLR,,0.00,WeatherDisplay:10.37,2013-02-28 16:19:00,
2013-02-28 11:20:00,44.8,43.7,29.69,SE,135,1.1,1.1,96,0.00,CLR,,0.00,WeatherDisplay:10.37,2013-02-28 16:20:00,
2013-02-28 11:21:00,44.8,43.7,29.69,SE,135,1.1,1.1,96,0.00,CLR,,0.00,WeatherDisplay:10.37,2013-02-28 16:21:00,
2013-02-28 11:24:00,44.8,43.7,29.69,SE,135,1.1,1.1,96,0.00,CLR,,0.00,WeatherDisplay:10.37,2013-02-28 16:24:00,
2013-02-28 11:26:00,44.8,43.7,29.69,SE,135,1.1,1.1,96,0.00,CLR,,0.00,WeatherDisplay:10.37,2013-02-28 16:26:00,
2013-02-28 11:29:00,44.8,43.7,29.69,SE,135,1.1,1.1,96,0.00,CLR,,0.00,WeatherDisplay:10.37,2013-02-28 16:29:00,
2013-02-28 11:30:00,44.8,43.7,29.69,SE,135,1.1,1.1,96,0.00,CLR,,0.00,WeatherDisplay:10.37,2013-02-28 16:30:00,
2013-02-28 11:31:00,45.5,44.4,29.67,South,180,1.1,1.1,96,0.00,CLR,,0.00,WeatherDisplay:10.37,2013-02-28 16:31:00,
2013-02-28 11:34:00,45.5,44.4,29.67,South,180,1.1,1.1,96,0.00,CLR,,0.00,WeatherDisplay:10.37,2013-02-28 16:34:00,
2013-02-28 11:35:00,45.5,44.4,29.67,South,180,1.1,1.1,96,0.00,CLR,,0.00,WeatherDisplay:10.37,2013-02-28 16:35:00,
2013-02-28 11:36:00,45.5,44.4,29.67,South,180,1.1,1.1,96,0.00,CLR,,0.00,WeatherDisplay:10.37,2013-02-28 16:36:00,
2013-02-28 11:40:00,45.5,44.4,29.67,South,180,1.1,1.1,96,0.00,CLR,,0.00,WeatherDisplay:10.37,2013-02-28 16:40:00,
2013-02-28 11:41:00,45.5,44.4,29.67,South,180,1.1,1.1,96,0.00,CLR,,0.00,WeatherDisplay:10.37,2013-02-28 16:41:00,
2013-02-28 11:45:00,45.5,44.4,29.67,South,180,1.1,1.1,96,0.00,CLR,,0.00,WeatherDisplay:10.37,2013-02-28 16:45:00,
2013-02-28 11:46:00,45.5,44.4,29.67,South,180,1.1,1.1,96,0.00,CLR,,0.00,WeatherDisplay:10.37,2013-02-28 16:46:00,
2013-02-28 11:50:00,45.5,44.4,29.67,South,180,1.1,1.1,96,0.00,CLR,,0.00,WeatherDisplay:10.37,2013-02-28 16:50:00,
2013-02-28 11:51:00,45.5,44.4,29.67,South,180,1.1,1.1,96,0.00,CLR,,0.00,WeatherDisplay:10.37,2013-02-28 16:51:00,
2013-02-28 11:55:00,45.5,44.4,29.67,South,180,1.1,1.1,96,0.00,CLR,,0.00,WeatherDisplay:10.37,2013-02-28 16:55:00,
2013-02-28 11:56:00,45.5,44.4,29.67,South,180,1.1,1.1,96,0.00,CLR,,0.00,WeatherDisplay:10.37,2013-02-28 16:56:00,
2013-02-28 11:57:00,45.5,44.4,29.67,South,180,1.1,1.1,96,0.00,CLR,,0.00,WeatherDisplay:10.37,2013-02-28 16:57:00,
2013-02-28 12:00:00,45.5,44.4,29.67,South,180,1.1,1.1,96,0.00,CLR,,0.00,WeatherDisplay:10.37,2013-02-28 17:00:00,
2013-02-28 12:01:00,45.3,44.2,29.66,SE,135,1.1,0.0,96,0.00,CLR,,0.00,WeatherDisplay:10.37,2013-02-28 17:01:00,
2013-02-28 12:02:00,45.3,44.2,29.66,SE,135,1.1,0.0,96,0.00,CLR,,0.00,WeatherDisplay:10.37,2013-02-28 17:02:00,
2013-02-28 12:05:00,45.3,44.2,29.66,SE,135,0.0,0.0,96,0.00,CLR,,0.00,WeatherDisplay:10.37,2013-02-28 17:05:00,
2013-02-28 12:07:00,45.3,44.2,29.66,SE,135,0.0,0.0,96,0.00,CLR,,0.00,WeatherDisplay:10.37,2013-02-28 17:07:00,
2013-02-28 12:10:00,45.3,44.2,29.66,SE,135,0.0,0.0,96,0.00,CLR,,0.00,WeatherDisplay:10.37,2013-02-28 17:10:00,
2013-02-28 12:12:00,45.3,44.2,29.66,SE,135,0.0,0.0,96,0.00,CLR,,0.00,WeatherDisplay:10.37,2013-02-28 17:12:00,
2013-02-28 12:15:00,45.3,44.2,29.66,SE,135,0.0,0.0,96,0.00,CLR,,0.00,WeatherDisplay:10.37,2013-02-28 17:15:00,
2013-02-28 12:17:00,45.3,44.2,29.66,SE,135,0.0,0.0,96,0.00,CLR,,0.00,WeatherDisplay:10.37,2013-02-28 17:17:00,
2013-02-28 12:20:00,45.3,44.2,29.66,SE,135,0.0,0.0,96,0.00,CLR,,0.00,WeatherDisplay:10.37,2013-02-28 17:20:00,
2013-02-28 12:22:00,45.3,44.2,29.66,SE,135,0.0,0.0,96,0.00,CLR,,0.00,WeatherDisplay:10.37,2013-02-28 17:22:00,
2013-02-28 12:26:00,45.3,44.2,29.66,SE,135,0.0,0.0,96,0.00,CLR,,0.00,WeatherDisplay:10.37,2013-02-28 17:26:00,
2013-02-28 12:27:00,45.3,44.2,29.66,SE,135,0.0,0.0,96,0.00,CLR,,0.00,WeatherDisplay:10.37,2013-02-28 17:27:00,
2013-02-28 12:31:00,47.8,47.0,29.65,NNW,338,0.0,0.5,97,0.00,CLR,,0.00,WeatherDisplay:10.37,2013-02-28 17:31:00,
2013-02-28 12:32:00,47.8,47.0,29.65,NNW,338,0.0,0.5,97,0.00,CLR,,0.00,WeatherDisplay:10.37,2013-02-28 17:32:00,
2013-02-28 12:36:00,47.8,47.0,29.65,NNW,338,0.0,0.5,97,0.00,CLR,,0.00,WeatherDisplay:10.37,2013-02-28 17:36:00,
2013-02-28 12:37:00,47.8,47.0,29.65,NNW,338,0.0,0.5,97,0.00,CLR,,0.00,WeatherDisplay:10.37,2013-02-28 17:37:00,
2013-02-28 12:41:00,47.8,47.0,29.65,NNW,338,0.0,0.5,97,0.00,CLR,,0.00,WeatherDisplay:10.37,2013-02-28 17:41:00,
2013-02-28 12:42:00,47.8,47.0,29.65,NNW,338,0.0,0.5,97,0.00,CLR,,0.00,WeatherDisplay:10.37,2013-02-28 17:42:00,
2013-02-28 12:43:00,47.8,47.0,29.65,NNW,338,0.0,0.5,97,0.00,CLR,,0.00,WeatherDisplay:10.37,2013-02-28 17:43:00,
2013-02-28 12:46:00,47.8,47.0,29.65,NNW,338,0.0,0.5,97,0.00,CLR,,0.00,WeatherDisplay:10.37,2013-02-28 17:46:00,
2013-02-28 12:47:00,47.8,47.0,29.65,NNW,338,0.0,0.5,97,0.00,CLR,,0.00,WeatherDisplay:10.37,2013-02-28 17:47:00,
2013-02-28 12:48:00,47.8,47.0,29.65,NNW,338,0.0,0.5,97,0.00,CLR,,0.00,WeatherDisplay:10.37,2013-02-28 17:48:00,
2013-02-28 12:51:00,47.8,47.0,29.65,NNW,338,0.0,0.5,97,0.00,CLR,,0.00,WeatherDisplay:10.37,2013-02-28 17:51:00,
2013-02-28 12:52:00,47.8,47.0,29.65,NNW,338,0.0,0.5,97,0.00,CLR,,0.00,WeatherDisplay:10.37,2013-02-28 17:52:00,
2013-02-28 12:53:00,47.8,47.0,29.65,NNW,338,0.0,0.5,97,0.00,CLR,,0.00,WeatherDisplay:10.37,2013-02-28 17:53:00,
2013-02-28 12:56:00,47.8,47.0,29.65,NNW,338,0.0,0.5,97,0.00,CLR,,0.00,WeatherDisplay:10.37,2013-02-28 17:56:00,
2013-02-28 12:57:00,47.8,47.0,29.65,NNW,338,0.0,0.5,97,0.00,CLR,,0.00,WeatherDisplay:10.37,2013-02-28 17:57:00,
2013-02-28 12:58:00,47.8,47.0,29.65,NNW,338,0.0,0.5,97,0.00,CLR,,0.00,WeatherDisplay:10.37,2013-02-28 17:58:00,
2013-02-28 13:01:00,49.6,48.5,29.64,North,0,0.0,0.2,96,0.00,CLR,,0.00,WeatherDisplay:10.37,2013-02-28 18:01:00,
2013-02-28 13:03:00,49.6,48.5,29.64,North,0,0.0,0.2,96,0.00,CLR,,0.00,WeatherDisplay:10.37,2013-02-28 18:03:00,
2013-02-28 13:06:00,49.6,48.5,29.64,North,0,0.2,0.2,96,0.00,CLR,,0.00,WeatherDisplay:10.37,2013-02-28 18:06:00,
2013-02-28 13:08:00,49.6,48.5,29.64,North,0,0.0,0.2,96,0.00,CLR,,0.00,WeatherDisplay:10.37,2013-02-28 18:08:00,
2013-02-28 13:09:00,49.6,48.5,29.64,North,0,0.0,0.2,96,0.00,CLR,,0.00,WeatherDisplay:10.37,2013-02-28 18:09:00,
2013-02-28 13:11:00,49.6,48.5,29.64,North,0,0.0,0.2,96,0.00,CLR,,0.00,WeatherDisplay:10.37,2013-02-28 18:11:00,
2013-02-28 13:13:00,49.6,48.5,29.64,North,0,0.0,0.2,96,0.00,CLR,,0.00,WeatherDisplay:10.37,2013-02-28 18:13:00,
2013-02-28 13:14:00,49.6,48.5,29.64,North,0,0.0,0.2,96,0.00,CLR,,0.00,WeatherDisplay:10.37,2013-02-28 18:14:00,
2013-02-28 13:17:00,49.6,48.5,29.64,North,0,0.0,0.2,96,0.00,CLR,,0.00,WeatherDisplay:10.37,2013-02-28 18:17:00,
2013-02-28 13:18:00,49.6,48.5,29.64,North,0,0.0,0.2,96,0.00,CLR,,0.00,WeatherDisplay:10.37,2013-02-28 18:18:00,
2013-02-28 13:19:00,49.6,48.5,29.64,North,0,0.0,0.2,96,0.00,CLR,,0.00,WeatherDisplay:10.37,2013-02-28 18:19:00,
2013-02-28 13:22:00,49.6,48.5,29.64,North,0,0.0,0.2,96,0.00,CLR,,0.00,WeatherDisplay:10.37,2013-02-28 18:22:00,
2013-02-28 13:23:00,49.6,48.5,29.64,North,0,0.0,0.2,96,0.00,CLR,,0.00,WeatherDisplay:10.37,2013-02-28 18:23:00,
2013-02-28 13:24:00,49.6,48.5,29.64,North,0,0.0,0.2,96,0.00,CLR,,0.00,WeatherDisplay:10.37,2013-02-28 18:24:00,
2013-02-28 13:27:00,49.6,48.5,29.64,North,0,0.0,0.2,96,0.00,CLR,,0.00,WeatherDisplay:10.37,2013-02-28 18:27:00,
2013-02-28 13:28:00,49.6,48.5,29.64,North,0,0.0,0.2,96,0.00,CLR,,0.00,WeatherDisplay:10.37,2013-02-28 18:28:00,
2013-02-28 13:29:00,49.6,48.5,29.64,North,0,0.0,0.2,96,0.00,CLR,,0.00,WeatherDisplay:10.37,2013-02-28 18:29:00,
2013-02-28 13:32:00,50.0,48.9,29.63,North,0,0.0,0.2,96,0.00,CLR,,0.00,WeatherDisplay:10.37,2013-02-28 18:32:00,
2013-02-28 13:33:00,50.0,48.9,29.63,North,0,0.0,0.2,96,0.00,CLR,,0.00,WeatherDisplay:10.37,2013-02-28 18:33:00,
2013-02-28 13:34:00,50.0,48.9,29.63,North,0,0.0,0.2,96,0.00,CLR,,0.00,WeatherDisplay:10.37,2013-02-28 18:34:00,
2013-02-28 13:38:00,50.0,48.9,29.63,North,0,0.0,0.2,96,0.00,CLR,,0.00,WeatherDisplay:10.37,2013-02-28 18:38:00,
2013-02-28 13:39:00,50.0,48.9,29.63,North,0,0.0,0.2,96,0.00,CLR,,0.00,WeatherDisplay:10.37,2013-02-28 18:39:00,
2013-02-28 13:43:00,50.0,48.9,29.63,North,0,0.0,0.2,96,0.00,CLR,,0.00,WeatherDisplay:10.37,2013-02-28 18:43:00,
2013-02-28 13:44:00,50.0,48.9,29.63,North,0,0.0,0.2,96,0.00,CLR,,0.00,WeatherDisplay:10.37,2013-02-28 18:44:00,
2013-02-28 13:48:00,50.0,48.9,29.63,North,0,0.0,0.2,96,0.00,CLR,,0.00,WeatherDisplay:10.37,2013-02-28 18:48:00,
2013-02-28 13:49:00,50.0,48.9,29.63,North,0,0.0,0.2,96,0.00,CLR,,0.00,WeatherDisplay:10.37,2013-02-28 18:49:00,
2013-02-28 13:53:00,50.0,48.9,29.63,North,0,0.0,0.2,96,0.00,CLR,,0.00,WeatherDisplay:10.37,2013-02-28 18:53:00,
2013-02-28 13:54:00,50.0,48.9,29.63,North,0,0.0,0.2,96,0.00,CLR,,0.00,WeatherDisplay:10.37,2013-02-28 18:54:00,
2013-02-28 13:55:00,50.0,48.9,29.63,North,0,0.0,0.2,96,0.00,CLR,,0.00,WeatherDisplay:10.37,2013-02-28 18:55:00,
2013-02-28 13:58:00,50.0,48.9,29.63,North,0,0.0,0.2,96,0.00,CLR,,0.00,WeatherDisplay:10.37,2013-02-28 18:58:00,
2013-02-28 13:59:00,50.0,48.9,29.63,North,0,0.0,0.2,96,0.00,CLR,,0.00,WeatherDisplay:10.37,2013-02-28 18:59:00,
2013-02-28 14:00:00,50.0,48.9,29.63,North,0,0.0,0.2,96,0.00,CLR,,0.00,WeatherDisplay:10.37,2013-02-28 19:00:00,
2013-02-28 14:03:00,48.7,47.7,29.64,East,90,0.0,0.0,96,0.00,CLR,,0.00,WeatherDisplay:10.37,2013-02-28 19:03:00,
2013-02-28 14:04:00,48.7,47.7,29.64,East,90,0.0,0.0,96,0.00,CLR,,0.00,WeatherDisplay:10.37,2013-02-28 19:04:00,
2013-02-28 14:05:00,48.7,47.7,29.64,East,90,0.0,0.0,96,0.00,CLR,,0.00,WeatherDisplay:10.37,2013-02-28 19:05:00,
2013-02-28 14:08:00,48.7,47.7,29.64,East,90,0.0,0.0,96,0.00,CLR,,0.00,WeatherDisplay:10.37,2013-02-28 19:08:00,
2013-02-28 14:09:00,48.7,47.7,29.64,East,90,0.0,0.0,96,0.00,CLR,,0.00,WeatherDisplay:10.37,2013-02-28 19:09:00,
2013-02-28 14:10:00,48.7,47.7,29.64,East,90,0.0,0.0,96,0.00,CLR,,0.00,WeatherDisplay:10.37,2013-02-28 19:10:00,
2013-02-28 14:13:00,48.7,47.7,29.64,East,90,0.0,0.0,96,0.00,CLR,,0.00,WeatherDisplay:10.37,2013-02-28 19:13:00,
2013-02-28 14:14:00,48.7,47.7,29.64,East,90,0.0,0.0,96,0.00,CLR,,0.00,WeatherDisplay:10.37,2013-02-28 19:14:00,
2013-02-28 14:15:00,48.7,47.7,29.64,East,90,0.0,0.0,96,0.00,CLR,,0.00,WeatherDisplay:10.37,2013-02-28 19:15:00,
2013-02-28 14:18:00,48.7,47.7,29.64,East,90,0.0,0.0,96,0.00,CLR,,0.00,WeatherDisplay:10.37,2013-02-28 19:18:00,
2013-02-28 14:19:00,48.7,47.7,29.64,East,90,0.0,0.0,96,0.00,CLR,,0.00,WeatherDisplay:10.37,2013-02-28 19:19:00,
2013-02-28 14:20:00,48.7,47.7,29.64,East,90,0.0,0.0,96,0.00,CLR,,0.00,WeatherDisplay:10.37,2013-02-28 19:20:00,
2013-02-28 14:21:00,48.7,47.7,29.64,East,90,0.0,0.0,96,0.00,CLR,,0.00,WeatherDisplay:10.37,2013-02-28 19:21:00,
2013-02-28 14:23:00,48.7,47.7,29.64,East,90,0.0,0.0,96,0.00,CLR,,0.00,WeatherDisplay:10.37,2013-02-28 19:23:00,
2013-02-28 14:24:00,48.7,47.7,29.64,East,90,0.0,0.0,96,0.00,CLR,,0.00,WeatherDisplay:10.37,2013-02-28 19:24:00,
2013-02-28 14:25:00,48.7,47.7,29.64,East,90,0.0,0.0,96,0.00,CLR,,0.00,WeatherDisplay:10.37,2013-02-28 19:25:00,
2013-02-28 14:26:00,48.7,47.7,29.64,East,90,0.0,0.0,96,0.00,CLR,,0.00,WeatherDisplay:10.37,2013-02-28 19:26:00,
2013-02-28 14:29:00,48.7,47.7,29.64,East,90,0.0,0.0,96,0.00,CLR,,0.00,WeatherDisplay:10.37,2013-02-28 19:29:00,
2013-02-28 14:31:00,47.7,46.6,29.64,WNW,292,0.0,0.2,96,0.00,CLR,,0.00,WeatherDisplay:10.37,2013-02-28 19:31:00,
2013-02-28 14:34:00,47.7,46.6,29.64,WNW,292,0.2,0.2,96,0.00,CLR,,0.00,WeatherDisplay:10.37,2013-02-28 19:34:00,
2013-02-28 14:36:00,47.7,46.6,29.64,WNW,292,0.0,0.2,96,0.00,CLR,,0.00,WeatherDisplay:10.37,2013-02-28 19:36:00,
2013-02-28 14:39:00,47.7,46.6,29.64,WNW,292,0.0,0.2,96,0.00,CLR,,0.00,WeatherDisplay:10.37,2013-02-28 19:39:00,
2013-02-28 14:40:00,47.7,46.6,29.64,WNW,292,0.0,0.2,96,0.00,CLR,,0.00,WeatherDisplay:10.37,2013-02-28 19:40:00,
2013-02-28 14:41:00,47.7,46.6,29.64,WNW,292,0.0,0.2,96,0.00,CLR,,0.00,WeatherDisplay:10.37,2013-02-28 19:41:00,
2013-02-28 14:44:00,47.7,46.6,29.64,WNW,292,0.0,0.2,96,0.00,CLR,,0.00,WeatherDisplay:10.37,2013-02-28 19:44:00,
2013-02-28 14:45:00,47.7,46.6,29.64,WNW,292,0.0,0.2,96,0.00,CLR,,0.00,WeatherDisplay:10.37,2013-02-28 19:45:00,
2013-02-28 14:46:00,47.7,46.6,29.64,WNW,292,0.0,0.2,96,0.00,CLR,,0.00,WeatherDisplay:10.37,2013-02-28 19:46:00,
2013-02-28 14:50:00,47.7,46.6,29.64,WNW,292,0.0,0.2,96,0.00,CLR,,0.00,WeatherDisplay:10.37,2013-02-28 19:50:00,
2013-02-28 14:51:00,47.7,46.6,29.64,WNW,292,0.0,0.2,96,0.00,CLR,,0.00,WeatherDisplay:10.37,2013-02-28 19:51:00,
2013-02-28 14:52:00,47.7,46.6,29.64,WNW,292,0.0,0.2,96,0.00,CLR,,0.00,WeatherDisplay:10.37,2013-02-28 19:52:00,
2013-02-28 14:55:00,47.7,46.6,29.64,WNW,292,0.0,0.2,96,0.00,CLR,,0.00,WeatherDisplay:10.37,2013-02-28 19:55:00,
2013-02-28 14:56:00,47.7,46.6,29.64,WNW,292,0.2,0.2,96,0.00,CLR,,0.00,WeatherDisplay:10.37,2013-02-28 19:56:00,
2013-02-28 14:57:00,47.7,46.6,29.64,WNW,292,0.0,0.2,96,0.00,CLR,,0.00,WeatherDisplay:10.37,2013-02-28 19:57:00,
2013-02-28 15:00:00,47.7,46.6,29.64,WNW,292,0.0,0.2,96,0.00,CLR,,0.00,WeatherDisplay:10.37,2013-02-28 20:00:00,
2013-02-28 15:01:00,47.3,46.2,29.63,NNE,22,0.0,0.5,96,0.00,CLR,,0.00,WeatherDisplay:10.37,2013-02-28 20:01:00,
2013-02-28 15:02:00,47.3,46.2,29.63,NNE,22,0.0,0.5,96,0.00,CLR,,0.00,WeatherDisplay:10.37,2013-02-28 20:02:00,
2013-02-28 15:05:00,47.3,46.2,29.63,NNE,22,0.0,0.5,96,0.00,CLR,,0.00,WeatherDisplay:10.37,2013-02-28 20:05:00,
2013-02-28 15:06:00,47.3,46.2,29.63,NNE,22,0.0,0.5,96,0.00,CLR,,0.00,WeatherDisplay:10.37,2013-02-28 20:06:00,
2013-02-28 15:07:00,47.3,46.2,29.63,NNE,22,0.0,0.5,96,0.00,CLR,,0.00,WeatherDisplay:10.37,2013-02-28 20:07:00,
2013-02-28 15:10:00,47.3,46.2,29.63,NNE,22,0.0,0.5,96,0.00,CLR,,0.00,WeatherDisplay:10.37,2013-02-28 20:10:00,
2013-02-28 15:12:00,47.3,46.2,29.63,NNE,22,0.0,0.5,96,0.00,CLR,,0.00,WeatherDisplay:10.37,2013-02-28 20:12:00,
2013-02-28 15:13:00,47.3,46.2,29.63,NNE,22,0.0,0.5,96,0.00,CLR,,0.00,WeatherDisplay:10.37,2013-02-28 20:13:00,
2013-02-28 15:15:00,47.3,46.2,29.63,NNE,22,0.5,0.5,96,0.00,CLR,,0.00,WeatherDisplay:10.37,2013-02-28 20:15:00,
2013-02-28 15:16:00,47.3,46.2,29.63,NNE,22,0.0,0.5,96,0.00,CLR,,0.00,WeatherDisplay:10.37,2013-02-28 20:16:00,
2013-02-28 15:17:00,47.3,46.2,29.63,NNE,22,0.0,0.5,96,0.00,CLR,,0.00,WeatherDisplay:10.37,2013-02-28 20:17:00,
2013-02-28 15:18:00,47.3,46.2,29.63,NNE,22,0.0,0.5,96,0.00,CLR,,0.00,WeatherDisplay:10.37,2013-02-28 20:18:00,
2013-02-28 15:21:00,47.3,46.2,29.63,NNE,22,0.0,0.5,96,0.00,CLR,,0.00,WeatherDisplay:10.37,2013-02-28 20:21:00,
2013-02-28 15:22:00,47.3,46.2,29.63,NNE,22,0.0,0.5,96,0.00,CLR,,0.00,WeatherDisplay:10.37,2013-02-28 20:22:00,
2013-02-28 15:23:00,47.3,46.2,29.63,NNE,22,0.0,0.5,96,0.00,CLR,,0.00,WeatherDisplay:10.37,2013-02-28 20:23:00,
2013-02-28 15:26:00,47.3,46.2,29.63,NNE,22,0.0,0.5,96,0.00,CLR,,0.00,WeatherDisplay:10.37,2013-02-28 20:26:00,
2013-02-28 15:28:00,47.3,46.2,29.63,NNE,22,0.0,0.5,96,0.00,CLR,,0.00,WeatherDisplay:10.37,2013-02-28 20:28:00,
2013-02-28 15:31:00,46.9,45.6,29.63,South,180,0.0,0.2,95,0.00,CLR,,0.00,WeatherDisplay:10.37,2013-02-28 20:31:00,
2013-02-28 15:33:00,46.9,45.6,29.63,South,180,0.0,0.2,95,0.00,CLR,,0.00,WeatherDisplay:10.37,2013-02-28 20:33:00,
2013-02-28 15:36:00,46.9,45.6,29.63,South,180,0.0,0.2,95,0.00,CLR,,0.00,WeatherDisplay:10.37,2013-02-28 20:36:00,
2013-02-28 15:38:00,46.9,45.6,29.63,South,180,0.0,0.2,95,0.00,CLR,,0.00,WeatherDisplay:10.37,2013-02-28 20:38:00,
2013-02-28 15:39:00,46.9,45.6,29.63,South,180,0.0,0.2,95,0.00,CLR,,0.00,WeatherDisplay:10.37,2013-02-28 20:39:00,
2013-02-28 15:41:00,46.9,45.6,29.63,South,180,0.0,0.2,95,0.00,CLR,,0.00,WeatherDisplay:10.37,2013-02-28 20:41:00,
2013-02-28 15:43:00,46.9,45.6,29.63,South,180,0.0,0.2,95,0.00,CLR,,0.00,WeatherDisplay:10.37,2013-02-28 20:43:00,
2013-02-28 15:44:00,46.9,45.6,29.63,South,180,0.0,0.2,95,0.00,CLR,,0.00,WeatherDisplay:10.37,2013-02-28 20:44:00,
2013-02-28 15:46:00,46.9,45.6,29.63,South,180,0.0,0.2,95,0.00,CLR,,0.00,WeatherDisplay:10.37,2013-02-28 20:46:00,
2013-02-28 15:47:00,46.9,45.6,29.63,South,180,0.0,0.2,95,0.00,CLR,,0.00,WeatherDisplay:10.37,2013-02-28 20:47:00,
2013-02-28 15:48:00,46.9,45.6,29.63,South,180,0.0,0.2,95,0.00,CLR,,0.00,WeatherDisplay:10.37,2013-02-28 20:48:00,
2013-02-28 15:50:00,46.9,45.6,29.63,South,180,0.0,0.2,95,0.00,CLR,,0.00,WeatherDisplay:10.37,2013-02-28 20:50:00,
2013-02-28 15:51:00,46.9,45.6,29.63,South,180,0.0,0.2,95,0.00,CLR,,0.00,WeatherDisplay:10.37,2013-02-28 20:51:00,
2013-02-28 15:52:00,46.9,45.6,29.63,South,180,0.0,0.2,95,0.00,CLR,,0.00,WeatherDisplay:10.37,2013-02-28 20:52:00,
2013-02-28 15:53:00,46.9,45.6,29.63,South,180,0.0,0.2,95,0.00,CLR,,0.00,WeatherDisplay:10.37,2013-02-28 20:53:00,
2013-02-28 15:55:00,46.9,45.6,29.63,South,180,0.0,0.0,95,0.00,CLR,CLR,0.00,WeatherDisplay:10.37,2013-02-28 20:55:00,
2013-02-28 15:56:00,46.9,45.6,29.63,South,180,0.0,0.2,95,0.00,CLR,,0.00,WeatherDisplay:10.37,2013-02-28 20:56:00,
2013-02-28 15:57:00,46.9,45.6,29.63,South,180,0.0,0.2,95,0.00,CLR,,0.00,WeatherDisplay:10.37,2013-02-28 20:57:00,
2013-02-28 15:58:00,46.9,45.6,29.63,South,180,0.0,0.2,95,0.00,CLR,,0.00,WeatherDisplay:10.37,2013-02-28 20:58:00,
2013-02-28 16:00:00,46.9,45.6,29.63,South,180,0.0,0.2,95,0.00,CLR,,0.00,WeatherDisplay:10.37,2013-02-28 21:00:00,
2013-02-28 16:02:00,46.4,45.0,29.62,NNW,338,0.0,0.0,95,0.00,CLR,,0.00,WeatherDisplay:10.37,2013-02-28 21:02:00,
2013-02-28 16:03:00,46.4,45.0,29.62,NNW,338,0.0,0.0,95,0.00,CLR,,0.00,WeatherDisplay:10.37,2013-02-28 21:03:00,
2013-02-28 16:05:00,46.4,45.0,29.62,NNW,338,0.0,0.0,95,0.00,CLR,,0.00,WeatherDisplay:10.37,2013-02-28 21:05:00,
2013-02-28 16:07:00,46.4,45.0,29.62,NNW,338,0.0,0.0,95,0.00,CLR,,0.00,WeatherDisplay:10.37,2013-02-28 21:07:00,
2013-02-28 16:08:00,46.4,45.0,29.62,NNW,338,0.0,0.0,95,0.00,CLR,,0.00,WeatherDisplay:10.37,2013-02-28 21:08:00,
2013-02-28 16:11:00,46.4,45.0,29.62,NNW,338,0.0,0.0,95,0.00,CLR,,0.00,WeatherDisplay:10.37,2013-02-28 21:11:00,
2013-02-28 16:12:00,46.4,45.0,29.62,NNW,338,0.0,0.0,95,0.00,CLR,,0.00,WeatherDisplay:10.37,2013-02-28 21:12:00,
2013-02-28 16:13:00,46.4,45.0,29.62,NNW,338,0.0,0.0,95,0.00,CLR,,0.00,WeatherDisplay:10.37,2013-02-28 21:13:00,
2013-02-28 16:16:00,46.4,45.0,29.62,NNW,338,0.0,0.0,95,0.00,CLR,,0.00,WeatherDisplay:10.37,2013-02-28 21:16:00,
2013-02-28 16:17:00,46.4,45.0,29.62,NNW,338,0.0,0.0,95,0.00,CLR,,0.00,WeatherDisplay:10.37,2013-02-28 21:17:00,
2013-02-28 16:18:00,46.4,45.0,29.62,NNW,338,0.0,0.0,95,0.00,CLR,,0.00,WeatherDisplay:10.37,2013-02-28 21:18:00,
2013-02-28 16:19:00,46.4,45.0,29.62,NNW,338,0.0,0.0,95,0.00,CLR,,0.00,WeatherDisplay:10.37,2013-02-28 21:19:00,
2013-02-28 16:21:00,46.4,45.0,29.62,NNW,338,0.0,0.0,95,0.00,CLR,,0.00,WeatherDisplay:10.37,2013-02-28 21:21:00,
2013-02-28 16:22:00,46.4,45.0,29.62,NNW,338,0.0,0.0,95,0.00,CLR,,0.00,WeatherDisplay:10.37,2013-02-28 21:22:00,
2013-02-28 16:23:00,46.4,45.0,29.62,NNW,338,0.0,0.0,95,0.00,CLR,,0.00,WeatherDisplay:10.37,2013-02-28 21:23:00,
2013-02-28 16:24:00,46.4,45.0,29.62,NNW,338,0.0,0.0,95,0.00,CLR,,0.00,WeatherDisplay:10.37,2013-02-28 21:24:00,
2013-02-28 16:26:00,46.4,45.0,29.62,NNW,338,0.0,0.0,95,0.00,CLR,,0.00,WeatherDisplay:10.37,2013-02-28 21:26:00,
2013-02-28 16:27:00,46.4,45.0,29.62,NNW,338,0.0,0.0,95,0.00,CLR,,0.00,WeatherDisplay:10.37,2013-02-28 21:27:00,
2013-02-28 16:28:00,46.4,45.0,29.62,NNW,338,0.0,0.0,95,0.00,CLR,,0.00,WeatherDisplay:10.37,2013-02-28 21:28:00,
2013-02-28 16:29:00,46.4,45.0,29.62,NNW,338,0.0,0.0,95,0.00,CLR,,0.00,WeatherDisplay:10.37,2013-02-28 21:29:00,
2013-02-28 16:31:00,46.0,44.7,29.63,SE,135,0.0,0.0,95,0.00,CLR,,0.00,WeatherDisplay:10.37,2013-02-28 21:31:00,
2013-02-28 16:32:00,46.0,44.7,29.63,SE,135,0.0,0.0,95,0.00,CLR,,0.00,WeatherDisplay:10.37,2013-02-28 21:32:00,
2013-02-28 16:33:00,46.0,44.7,29.63,SE,135,0.0,0.0,95,0.00,CLR,,0.00,WeatherDisplay:10.37,2013-02-28 21:33:00,
2013-02-28 16:34:00,46.0,44.7,29.63,SE,135,0.0,0.0,95,0.00,CLR,,0.00,WeatherDisplay:10.37,2013-02-28 21:34:00,
2013-02-28 16:36:00,46.0,44.7,29.63,SE,135,0.0,0.0,95,0.00,CLR,,0.00,WeatherDisplay:10.37,2013-02-28 21:36:00,
2013-02-28 16:37:00,46.0,44.7,29.63,SE,135,0.0,0.0,95,0.00,CLR,,0.00,WeatherDisplay:10.37,2013-02-28 21:37:00,
2013-02-28 16:38:00,46.0,44.7,29.63,SE,135,0.0,0.0,95,0.00,CLR,,0.00,WeatherDisplay:10.37,2013-02-28 21:38:00,
2013-02-28 16:39:00,46.0,44.7,29.63,SE,135,0.0,0.0,95,0.00,CLR,,0.00,WeatherDisplay:10.37,2013-02-28 21:39:00,
2013-02-28 16:41:00,46.0,44.7,29.63,SE,135,0.0,0.0,95,0.00,CLR,,0.00,WeatherDisplay:10.37,2013-02-28 21:41:00,
2013-02-28 16:43:00,46.0,44.7,29.63,SE,135,0.0,0.0,95,0.00,CLR,,0.00,WeatherDisplay:10.37,2013-02-28 21:43:00,
2013-02-28 16:44:00,46.0,44.7,29.63,SE,135,0.0,0.0,95,0.00,CLR,,0.00,WeatherDisplay:10.37,2013-02-28 21:44:00,
2013-02-28 16:47:00,46.0,44.7,29.63,SE,135,0.0,0.0,95,0.00,CLR,,0.00,WeatherDisplay:10.37,2013-02-28 21:47:00,
2013-02-28 16:48:00,46.0,44.7,29.63,SE,135,0.0,0.0,95,0.00,CLR,,0.00,WeatherDisplay:10.37,2013-02-28 21:48:00,
2013-02-28 16:50:00,46.0,44.7,29.63,SE,135,0.0,0.0,95,0.00,CLR,,0.00,WeatherDisplay:10.37,2013-02-28 21:50:00,
2013-02-28 16:52:00,46.0,44.7,29.63,SE,135,0.0,0.0,95,0.00,CLR,,0.00,WeatherDisplay:10.37,2013-02-28 21:52:00,
2013-02-28 16:53:00,46.0,44.7,29.63,SE,135,0.0,0.0,95,0.00,CLR,,0.00,WeatherDisplay:10.37,2013-02-28 21:53:00,
2013-02-28 16:55:00,46.0,44.7,29.63,SE,135,0.0,0.0,95,0.00,CLR,,0.00,WeatherDisplay:10.37,2013-02-28 21:55:00,
2013-02-28 16:57:00,46.0,44.7,29.63,SE,135,0.0,0.0,95,0.00,CLR,,0.00,WeatherDisplay:10.37,2013-02-28 21:57:00,
2013-02-28 16:58:00,46.0,44.7,29.63,SE,135,0.0,0.0,95,0.00,CLR,,0.00,WeatherDisplay:10.37,2013-02-28 21:58:00,
2013-02-28 17:00:00,46.0,44.7,29.63,SE,135,0.0,0.0,95,0.00,CLR,,0.00,WeatherDisplay:10.37,2013-02-28 22:00:00,
2013-02-28 17:02:00,45.5,44.2,29.64,West,270,0.0,0.2,95,0.00,CLR,,0.00,WeatherDisplay:10.37,2013-02-28 22:02:00,
2013-02-28 17:03:00,45.5,44.2,29.64,West,270,0.0,0.2,95,0.00,CLR,,0.00,WeatherDisplay:10.37,2013-02-28 22:03:00,
2013-02-28 17:06:00,45.5,44.2,29.64,West,270,0.0,0.2,95,0.00,CLR,,0.00,WeatherDisplay:10.37,2013-02-28 22:06:00,
2013-02-28 17:07:00,45.5,44.2,29.64,West,270,0.0,0.2,95,0.00,CLR,,0.00,WeatherDisplay:10.37,2013-02-28 22:07:00,
2013-02-28 17:08:00,45.5,44.2,29.64,West,270,0.0,0.2,95,0.00,CLR,,0.00,WeatherDisplay:10.37,2013-02-28 22:08:00,
2013-02-28 17:11:00,45.5,44.2,29.64,West,270,0.0,0.2,95,0.00,CLR,,0.00,WeatherDisplay:10.37,2013-02-28 22:11:00,
2013-02-28 17:12:00,45.5,44.2,29.64,West,270,0.0,0.2,95,0.00,CLR,,0.00,WeatherDisplay:10.37,2013-02-28 22:12:00,
2013-02-28 17:13:00,45.5,44.2,29.64,West,270,0.0,0.2,95,0.00,CLR,,0.00,WeatherDisplay:10.37,2013-02-28 22:13:00,
2013-02-28 17:16:00,45.5,44.2,29.64,West,270,0.0,0.2,95,0.00,CLR,,0.00,WeatherDisplay:10.37,2013-02-28 22:16:00,
2013-02-28 17:17:00,45.5,44.2,29.64,West,270,0.0,0.2,95,0.00,CLR,,0.00,WeatherDisplay:10.37,2013-02-28 22:17:00,
2013-02-28 17:18:00,45.5,44.2,29.64,West,270,0.0,0.2,95,0.00,CLR,,0.00,WeatherDisplay:10.37,2013-02-28 22:18:00,
2013-02-28 17:21:00,45.5,44.2,29.64,West,270,0.0,0.2,95,0.00,CLR,,0.00,WeatherDisplay:10.37,2013-02-28 22:21:00,
2013-02-28 17:22:00,45.5,44.2,29.64,West,270,0.0,0.2,95,0.00,CLR,,0.00,WeatherDisplay:10.37,2013-02-28 22:22:00,
2013-02-28 17:23:00,45.5,44.2,29.64,West,270,0.0,0.2,95,0.00,CLR,,0.00,WeatherDisplay:10.37,2013-02-28 22:23:00,
2013-02-28 17:24:00,45.5,44.2,29.64,West,270,0.0,0.2,95,0.00,CLR,,0.00,WeatherDisplay:10.37,2013-02-28 22:24:00,
2013-02-28 17:26:00,45.5,44.2,29.64,West,270,0.0,0.2,95,0.00,CLR,,0.00,WeatherDisplay:10.37,2013-02-28 22:26:00,
2013-02-28 17:27:00,45.5,44.2,29.64,West,270,0.0,0.2,95,0.00,CLR,,0.00,WeatherDisplay:10.37,2013-02-28 22:27:00,
2013-02-28 17:28:00,45.5,44.2,29.64,West,270,0.0,0.2,95,0.00,CLR,,0.00,WeatherDisplay:10.37,2013-02-28 22:28:00,
2013-02-28 17:29:00,45.5,44.2,29.64,West,270,0.0,0.2,95,0.00,CLR,,0.00,WeatherDisplay:10.37,2013-02-28 22:29:00,
2013-02-28 17:32:00,44.6,43.3,29.64,SW,225,0.0,0.0,95,0.00,CLR,,0.00,WeatherDisplay:10.37,2013-02-28 22:32:00,
2013-02-28 17:34:00,44.6,43.3,29.64,SW,225,0.0,0.0,95,0.00,CLR,,0.00,WeatherDisplay:10.37,2013-02-28 22:34:00,
2013-02-28 17:37:00,44.6,43.3,29.64,SW,225,0.0,0.0,95,0.00,CLR,,0.00,WeatherDisplay:10.37,2013-02-28 22:37:00,
2013-02-28 17:38:00,44.6,43.3,29.64,SW,225,0.0,0.0,95,0.00,CLR,,0.00,WeatherDisplay:10.37,2013-02-28 22:38:00,
2013-02-28 17:39:00,44.6,43.3,29.64,SW,225,0.0,0.0,95,0.00,CLR,,0.00,WeatherDisplay:10.37,2013-02-28 22:39:00,
2013-02-28 17:42:00,44.6,43.3,29.64,SW,225,0.0,0.0,95,0.00,CLR,,0.00,WeatherDisplay:10.37,2013-02-28 22:42:00,
2013-02-28 17:43:00,44.6,43.3,29.64,SW,225,0.0,0.0,95,0.00,CLR,,0.00,WeatherDisplay:10.37,2013-02-28 22:43:00,
2013-02-28 17:44:00,44.6,43.3,29.64,SW,225,0.0,0.0,95,0.00,CLR,,0.00,WeatherDisplay:10.37,2013-02-28 22:44:00,
2013-02-28 17:47:00,44.6,43.3,29.64,SW,225,0.0,0.0,95,0.00,CLR,,0.00,WeatherDisplay:10.37,2013-02-28 22:47:00,
2013-02-28 17:48:00,44.6,43.3,29.64,SW,225,0.0,0.0,95,0.00,CLR,,0.00,WeatherDisplay:10.37,2013-02-28 22:48:00,
2013-02-28 17:49:00,44.6,43.3,29.64,SW,225,0.0,0.0,95,0.00,CLR,,0.00,WeatherDisplay:10.37,2013-02-28 22:49:00,
2013-02-28 17:50:00,44.6,43.3,29.64,SW,225,0.0,0.0,95,0.00,CLR,,0.00,WeatherDisplay:10.37,2013-02-28 22:50:00,
2013-02-28 17:52:00,44.6,43.3,29.64,SW,225,0.0,0.0,95,0.00,CLR,,0.00,WeatherDisplay:10.37,2013-02-28 22:52:00,
2013-02-28 17:53:00,44.6,43.3,29.64,SW,225,0.0,0.0,95,0.00,CLR,,0.00,WeatherDisplay:10.37,2013-02-28 22:53:00,
2013-02-28 17:54:00,44.6,43.3,29.64,SW,225,0.0,0.0,95,0.00,CLR,,0.00,WeatherDisplay:10.37,2013-02-28 22:54:00,
2013-02-28 17:55:00,44.6,43.3,29.64,SW,225,0.0,0.0,95,0.00,CLR,,0.00,WeatherDisplay:10.37,2013-02-28 22:55:00,
2013-02-28 17:57:00,44.6,43.3,29.64,SW,225,0.0,0.0,95,0.00,CLR,,0.00,WeatherDisplay:10.37,2013-02-28 22:57:00,
2013-02-28 17:58:00,44.6,43.3,29.64,SW,225,0.0,0.0,95,0.00,CLR,,0.00,WeatherDisplay:10.37,2013-02-28 22:58:00,
2013-02-28 17:59:00,44.6,43.3,29.64,SW,225,0.0,0.0,95,0.00,CLR,,0.00,WeatherDisplay:10.37,2013-02-28 22:59:00,
2013-02-28 18:00:00,44.6,43.3,29.64,SW,225,0.0,0.0,95,0.00,CLR,,0.00,WeatherDisplay:10.37,2013-02-28 23:00:00,
2013-02-28 18:02:00,43.3,42.0,29.64,SW,225,0.0,0.0,95,0.00,CLR,,0.00,WeatherDisplay:10.37,2013-02-28 23:02:00,
2013-02-28 18:04:00,43.3,42.0,29.64,SW,225,0.0,0.0,95,0.00,CLR,,0.00,WeatherDisplay:10.37,2013-02-28 23:04:00,
2013-02-28 18:05:00,43.3,42.0,29.64,SW,225,0.0,0.0,95,0.00,CLR,,0.00,WeatherDisplay:10.37,2013-02-28 23:05:00,
2013-02-28 18:08:00,43.3,42.0,29.64,SW,225,0.0,0.0,95,0.00,CLR,,0.00,WeatherDisplay:10.37,2013-02-28 23:08:00,
2013-02-28 18:09:00,43.3,42.0,29.64,SW,225,0.0,0.0,95,0.00,CLR,,0.00,WeatherDisplay:10.37,2013-02-28 23:09:00,
2013-02-28 18:10:00,43.3,42.0,29.64,SW,225,0.0,0.0,95,0.00,CLR,CLR,0.00,WeatherDisplay:10.37,2013-02-28 23:10:00,
2013-02-28 18:13:00,43.3,42.0,29.64,SW,225,0.0,0.0,95,0.00,CLR,,0.00,WeatherDisplay:10.37,2013-02-28 23:13:00,
2013-02-28 18:14:00,43.3,42.0,29.64,SW,225,0.0,0.0,95,0.00,CLR,,0.00,WeatherDisplay:10.37,2013-02-28 23:14:00,
2013-02-28 18:15:00,43.3,42.0,29.64,SW,225,0.0,0.0,95,0.00,CLR,,0.00,WeatherDisplay:10.37,2013-02-28 23:15:00,
2013-02-28 18:18:00,43.3,42.0,29.64,SW,225,0.0,0.0,95,0.00,CLR,,0.00,WeatherDisplay:10.37,2013-02-28 23:18:00,
2013-02-28 18:19:00,43.3,42.0,29.64,SW,225,0.0,0.0,95,0.00,CLR,,0.00,WeatherDisplay:10.37,2013-02-28 23:19:00,
2013-02-28 18:20:00,43.3,42.0,29.64,SW,225,0.0,0.0,95,0.00,CLR,,0.00,WeatherDisplay:10.37,2013-02-28 23:20:00,
2013-02-28 18:23:00,43.3,42.0,29.64,SW,225,0.0,0.0,95,0.00,CLR,,0.00,WeatherDisplay:10.37,2013-02-28 23:23:00,
2013-02-28 18:24:00,43.3,42.0,29.64,SW,225,0.0,0.0,95,0.00,CLR,,0.00,WeatherDisplay:10.37,2013-02-28 23:24:00,
2013-02-28 18:25:00,43.3,42.0,29.64,SW,225,0.0,0.0,95,0.00,CLR,,0.00,WeatherDisplay:10.37,2013-02-28 23:25:00,
2013-02-28 18:28:00,43.3,42.0,29.64,SW,225,0.0,0.0,95,0.00,CLR,,0.00,WeatherDisplay:10.37,2013-02-28 23:28:00,
2013-02-28 18:30:00,43.3,42.0,29.64,SW,225,0.0,0.0,95,0.00,CLR,,0.00,WeatherDisplay:10.37,2013-02-28 23:30:00,
2013-02-28 18:31:00,42.4,41.1,29.64,East,90,0.0,0.0,95,0.00,CLR,,0.00,WeatherDisplay:10.37,2013-02-28 23:31:00,
2013-02-28 18:33:00,42.4,41.1,29.64,East,90,0.0,0.0,95,0.00,CLR,,0.00,WeatherDisplay:10.37,2013-02-28 23:33:00,
2013-02-28 18:35:00,42.4,41.1,29.64,East,90,0.0,0.0,95,0.00,CLR,,0.00,WeatherDisplay:10.37,2013-02-28 23:35:00,
2013-02-28 18:36:00,42.4,41.1,29.64,East,90,0.0,0.0,95,0.00,CLR,,0.00,WeatherDisplay:10.37,2013-02-28 23:36:00,
2013-02-28 18:38:00,42.4,41.1,29.64,East,90,0.0,0.0,95,0.00,CLR,,0.00,WeatherDisplay:10.37,2013-02-28 23:38:00,
2013-02-28 18:40:00,42.4,41.1,29.64,East,90,0.0,0.0,95,0.00,CLR,,0.00,WeatherDisplay:10.37,2013-02-28 23:40:00,
2013-02-28 18:41:00,42.4,41.1,29.64,East,90,0.0,0.0,95,0.00,CLR,,0.00,WeatherDisplay:10.37,2013-02-28 23:41:00,
2013-02-28 18:43:00,42.4,41.1,29.64,East,90,0.0,0.0,95,0.00,CLR,,0.00,WeatherDisplay:10.37,2013-02-28 23:43:00,
2013-02-28 18:45:00,42.4,41.1,29.64,East,90,0.0,0.0,95,0.00,CLR,,0.00,WeatherDisplay:10.37,2013-02-28 23:45:00,
2013-02-28 18:46:00,42.4,41.1,29.64,East,90,0.0,0.0,95,0.00,CLR,,0.00,WeatherDisplay:10.37,2013-02-28 23:46:00,
2013-02-28 18:48:00,42.4,41.1,29.64,East,90,0.0,0.0,95,0.00,CLR,,0.00,WeatherDisplay:10.37,2013-02-28 23:48:00,
2013-02-28 18:50:00,42.4,41.1,29.64,East,90,0.0,0.0,95,0.00,CLR,,0.00,WeatherDisplay:10.37,2013-02-28 23:50:00,
2013-02-28 18:51:00,42.4,41.1,29.64,East,90,0.0,0.0,95,0.00,CLR,,0.00,WeatherDisplay:10.37,2013-02-28 23:51:00,
2013-02-28 18:53:00,42.4,41.1,29.64,East,90,0.0,0.0,95,0.00,CLR,,0.00,WeatherDisplay:10.37,2013-02-28 23:53:00,
2013-02-28 18:55:00,42.4,41.1,29.64,East,90,0.0,0.0,95,0.00,CLR,,0.00,WeatherDisplay:10.37,2013-02-28 23:55:00,
2013-02-28 18:56:00,42.4,41.1,29.64,East,90,0.0,0.0,95,0.00,CLR,,0.00,WeatherDisplay:10.37,2013-02-28 23:56:00,
2013-02-28 18:59:00,42.4,41.1,29.64,East,90,0.0,0.0,95,0.00,CLR,,0.00,WeatherDisplay:10.37,2013-02-28 23:59:00,
2013-02-28 19:00:00,42.4,41.1,29.64,East,90,0.0,0.0,95,0.00,CLR,,0.00,WeatherDisplay:10.37,2013-03-01 00:00:00,
2013-02-28 19:01:00,42.1,40.8,29.66,ESE,112,0.0,0.0,95,0.00,CLR,,0.00,WeatherDisplay:10.37,2013-03-01 00:01:00,
2013-02-28 19:04:00,42.1,40.8,29.66,ESE,112,0.0,0.0,95,0.00,CLR,,0.00,WeatherDisplay:10.37,2013-03-01 00:04:00,
2013-02-28 19:05:00,42.1,40.8,29.66,ESE,112,0.0,0.0,95,0.00,CLR,,0.00,WeatherDisplay:10.37,2013-03-01 00:05:00,
2013-02-28 19:06:00,42.1,40.8,29.66,ESE,112,0.0,0.0,95,0.00,CLR,,0.00,WeatherDisplay:10.37,2013-03-01 00:06:00,
2013-02-28 19:09:00,42.1,40.8,29.66,ESE,112,0.0,0.0,95,0.00,CLR,,0.00,WeatherDisplay:10.37,2013-03-01 00:09:00,
2013-02-28 19:10:00,42.1,40.8,29.66,ESE,112,0.0,0.0,95,0.00,CLR,,0.00,WeatherDisplay:10.37,2013-03-01 00:10:00,
2013-02-28 19:11:00,42.1,40.8,29.66,ESE,112,0.0,0.0,95,0.00,CLR,,0.00,WeatherDisplay:10.37,2013-03-01 00:11:00,
2013-02-28 19:12:00,42.1,40.8,29.66,ESE,112,0.0,0.0,95,0.00,CLR,,0.00,WeatherDisplay:10.37,2013-03-01 00:12:00,
2013-02-28 19:14:00,42.1,40.8,29.66,ESE,112,0.0,0.0,95,0.00,CLR,,0.00,WeatherDisplay:10.37,2013-03-01 00:14:00,
2013-02-28 19:16:00,42.1,40.8,29.66,ESE,112,0.0,0.0,95,0.00,CLR,,0.00,WeatherDisplay:10.37,2013-03-01 00:16:00,
2013-02-28 19:17:00,42.1,40.8,29.66,ESE,112,0.0,0.0,95,0.00,CLR,,0.00,WeatherDisplay:10.37,2013-03-01 00:17:00,
2013-02-28 19:19:00,42.1,40.8,29.66,ESE,112,0.0,0.0,95,0.00,CLR,,0.00,WeatherDisplay:10.37,2013-03-01 00:19:00,
2013-02-28 19:21:00,42.1,40.8,29.66,ESE,112,0.0,0.0,95,0.00,CLR,,0.00,WeatherDisplay:10.37,2013-03-01 00:21:00,
2013-02-28 19:22:00,42.1,40.8,29.66,ESE,112,0.0,0.0,95,0.00,CLR,,0.00,WeatherDisplay:10.37,2013-03-01 00:22:00,
2013-02-28 19:24:00,42.1,40.8,29.66,ESE,112,0.0,0.0,95,0.00,CLR,,0.00,WeatherDisplay:10.37,2013-03-01 00:24:00,
2013-02-28 19:26:00,42.1,40.8,29.66,ESE,112,0.0,0.0,95,0.00,CLR,,0.00,WeatherDisplay:10.37,2013-03-01 00:26:00,
2013-02-28 19:27:00,42.1,40.8,29.66,ESE,112,0.0,0.0,95,0.00,CLR,,0.00,WeatherDisplay:10.37,2013-03-01 00:27:00,
2013-02-28 19:30:00,42.1,40.8,29.66,ESE,112,0.0,0.0,95,0.00,CLR,,0.00,WeatherDisplay:10.37,2013-03-01 00:30:00,
2013-02-28 19:31:00,42.1,40.8,29.66,ESE,112,0.0,0.0,95,0.00,CLR,,0.00,WeatherDisplay:10.37,2013-03-01 00:31:00,
2013-02-28 19:32:00,41.0,39.9,29.65,ESE,112,0.0,0.0,96,0.00,CLR,,0.00,WeatherDisplay:10.37,2013-03-01 00:32:00,
2013-02-28 19:33:00,41.0,39.9,29.65,ESE,112,0.0,0.0,96,0.00,CLR,,0.00,WeatherDisplay:10.37,2013-03-01 00:33:00,
2013-02-28 19:35:00,41.0,39.9,29.65,ESE,112,0.0,0.0,96,0.00,CLR,,0.00,WeatherDisplay:10.37,2013-03-01 00:35:00,
2013-02-28 19:36:00,41.0,39.9,29.65,ESE,112,0.0,0.0,96,0.00,CLR,,0.00,WeatherDisplay:10.37,2013-03-01 00:36:00,
2013-02-28 19:37:00,41.0,39.9,29.65,ESE,112,0.0,0.0,96,0.00,CLR,,0.00,WeatherDisplay:10.37,2013-03-01 00:37:00,
2013-02-28 19:38:00,41.0,39.9,29.65,ESE,112,0.0,0.0,96,0.00,CLR,,0.00,WeatherDisplay:10.37,2013-03-01 00:38:00,
2013-02-28 19:40:00,41.0,39.9,29.65,ESE,112,0.0,0.0,96,0.00,CLR,,0.00,WeatherDisplay:10.37,2013-03-01 00:40:00,
2013-02-28 19:41:00,41.0,39.9,29.65,SSE,158,0.0,0.0,96,0.00,CLR,,0.00,WeatherDisplay:10.37,2013-03-01 00:41:00,
2013-02-28 19:42:00,41.0,39.9,29.65,SSE,158,0.0,0.0,96,0.00,CLR,,0.00,WeatherDisplay:10.37,2013-03-01 00:42:00,
2013-02-28 19:43:00,40.8,39.8,29.65,SSE,158,0.0,0.0,96,0.00,CLR,,0.00,WeatherDisplay:10.37,2013-03-01 00:43:00,
2013-02-28 19:45:00,40.8,39.8,29.65,SSE,158,0.0,0.0,96,0.00,CLR,,0.00,WeatherDisplay:10.37,2013-03-01 00:45:00,
2013-02-28 19:47:00,40.8,39.8,29.65,SSE,158,0.0,0.0,96,0.00,CLR,,0.00,WeatherDisplay:10.37,2013-03-01 00:47:00,
2013-02-28 19:48:00,40.8,39.8,29.65,SSE,158,0.0,0.0,96,0.00,CLR,,0.00,WeatherDisplay:10.37,2013-03-01 00:48:00,
2013-02-28 19:50:00,40.8,39.8,29.66,SSE,158,0.0,0.0,96,0.00,CLR,,0.00,WeatherDisplay:10.37,2013-03-01 00:50:00,
2013-02-28 20:12:00,40.6,39.6,29.66,SSE,158,0.0,0.0,96,0.00,CLR,,0.00,WeatherDisplay:10.37,2013-03-01 01:12:00,
2013-02-28 20:13:00,40.6,39.6,29.66,SSE,158,0.0,0.0,96,0.00,CLR,,0.00,WeatherDisplay:10.37,2013-03-01 01:13:00,
2013-02-28 20:17:00,40.5,39.4,29.67,SSE,158,0.0,0.0,96,0.00,CLR,,0.00,WeatherDisplay:10.37,2013-03-01 01:17:00,
2013-02-28 20:18:00,40.5,39.4,29.67,SSE,158,0.0,0.0,96,0.00,CLR,,0.00,WeatherDisplay:10.37,2013-03-01 01:18:00,
2013-02-28 20:22:00,40.5,39.4,29.67,SSE,158,0.0,0.0,96,0.00,CLR,,0.00,WeatherDisplay:10.37,2013-03-01 01:22:00,
2013-02-28 20:23:00,40.5,39.4,29.67,SSE,158,0.0,0.5,96,0.00,CLR,,0.00,WeatherDisplay:10.37,2013-03-01 01:23:00,
2013-02-28 20:27:00,40.3,39.2,29.67,SSE,158,0.0,0.0,96,0.00,CLR,,0.00,WeatherDisplay:10.37,2013-03-01 01:27:00,
2013-02-28 20:28:00,40.3,39.2,29.67,SSE,158,0.0,0.0,96,0.00,CLR,,0.00,WeatherDisplay:10.37,2013-03-01 01:28:00,
2013-02-28 20:33:00,40.3,39.2,29.67,SSE,158,0.0,0.0,96,0.00,CLR,,0.00,WeatherDisplay:10.37,2013-03-01 01:33:00,
2013-02-28 20:38:00,40.3,39.2,29.67,SSE,158,0.0,0.0,96,0.00,CLR,,0.00,WeatherDisplay:10.37,2013-03-01 01:38:00,
2013-02-28 20:43:00,40.3,39.2,29.67,SSE,158,0.0,0.0,96,0.00,CLR,,0.00,WeatherDisplay:10.37,2013-03-01 01:43:00,
2013-02-28 20:48:00,40.3,39.2,29.67,SSE,158,0.0,0.0,96,0.00,CLR,,0.00,WeatherDisplay:10.37,2013-03-01 01:48:00,
2013-02-28 20:49:00,40.3,39.2,29.66,SSE,158,0.0,0.0,96,0.00,CLR,,0.00,WeatherDisplay:10.37,2013-03-01 01:49:00,
2013-02-28 21:07:00,40.5,39.4,29.66,SSE,158,0.0,0.0,96,0.00,CLR,,0.00,WeatherDisplay:10.37,2013-03-01 02:07:00,
2013-02-28 21:08:00,40.5,39.4,29.66,SSE,158,0.0,0.0,96,0.00,CLR,,0.00,WeatherDisplay:10.37,2013-03-01 02:08:00,
2013-02-28 21:13:00,40.3,39.0,29.66,SSE,158,0.0,0.0,95,0.00,CLR,,0.00,WeatherDisplay:10.37,2013-03-01 02:13:00,
2013-02-28 21:18:00,40.1,38.8,29.66,SSE,158,0.0,0.0,95,0.00,CLR,,0.00,WeatherDisplay:10.37,2013-03-01 02:18:00,
2013-02-28 21:23:00,40.1,38.8,29.66,SSE,158,0.0,0.0,95,0.00,CLR,,0.00,WeatherDisplay:10.37,2013-03-01 02:23:00,
2013-02-28 21:28:00,40.1,38.8,29.66,SSE,158,0.0,0.0,95,0.00,CLR,,0.00,WeatherDisplay:10.37,2013-03-01 02:28:00,
2013-02-28 21:33:00,40.1,38.8,29.66,SSE,158,0.0,0.0,95,0.00,CLR,,0.00,WeatherDisplay:10.37,2013-03-01 02:33:00,
2013-02-28 21:38:00,39.9,38.6,29.66,SSE,158,0.0,0.0,95,0.00,CLR,,0.00,WeatherDisplay:10.37,2013-03-01 02:38:00,
2013-02-28 21:43:00,39.9,38.6,29.66,SSE,158,0.0,0.0,95,0.00,CLR,,0.00,WeatherDisplay:10.37,2013-03-01 02:43:00,
2013-02-28 21:48:00,39.9,38.6,29.66,ENE,68,0.0,0.0,95,0.00,CLR,,0.00,WeatherDisplay:10.37,2013-03-01 02:48:00,
2013-02-28 21:49:00,39.9,38.6,29.66,ENE,68,0.0,0.0,95,0.00,CLR,,0.00,WeatherDisplay:10.37,2013-03-01 02:49:00,
2013-02-28 21:53:00,39.9,38.6,29.66,ENE,68,0.0,0.0,95,0.00,CLR,,0.00,WeatherDisplay:10.37,2013-03-01 02:53:00,
2013-02-28 21:54:00,39.9,38.6,29.66,ENE,68,0.0,0.0,95,0.00,CLR,,0.00,WeatherDisplay:10.37,2013-03-01 02:54:00,
2013-02-28 21:55:00,39.9,38.6,29.66,ENE,68,0.0,0.0,95,0.00,CLR,,0.00,WeatherDisplay:10.37,2013-03-01 02:55:00,
2013-02-28 21:58:00,39.9,38.6,29.66,ENE,68,0.0,0.0,95,0.00,CLR,,0.00,WeatherDisplay:10.37,2013-03-01 02:58:00,
2013-02-28 21:59:00,39.9,38.6,29.66,ENE,68,0.0,0.0,95,0.00,CLR,,0.00,WeatherDisplay:10.37,2013-03-01 02:59:00,
2013-02-28 22:00:00,39.9,38.6,29.66,ENE,68,0.0,0.0,95,0.00,CLR,,0.00,WeatherDisplay:10.37,2013-03-01 03:00:00,
2013-02-28 22:04:00,39.9,38.6,29.65,ESE,112,0.0,0.0,95,0.00,CLR,,0.00,WeatherDisplay:10.37,2013-03-01 03:04:00,
2013-02-28 22:05:00,39.7,38.4,29.65,ESE,112,0.0,0.0,95,0.00,CLR,,0.00,WeatherDisplay:10.37,2013-03-01 03:05:00,
2013-02-28 22:09:00,39.7,38.4,29.66,ESE,112,0.0,0.0,95,0.00,CLR,,0.00,WeatherDisplay:10.37,2013-03-01 03:09:00,
2013-02-28 22:10:00,39.7,38.4,29.65,ESE,112,0.0,0.0,95,0.00,CLR,,0.00,WeatherDisplay:10.37,2013-03-01 03:10:00,
2013-02-28 22:14:00,39.7,38.4,29.66,ESE,112,0.0,0.0,95,0.00,CLR,,0.00,WeatherDisplay:10.37,2013-03-01 03:14:00,
2013-02-28 22:15:00,39.7,38.4,29.65,ESE,112,0.0,0.0,95,0.00,CLR,,0.00,WeatherDisplay:10.37,2013-03-01 03:15:00,
2013-02-28 22:16:00,39.7,38.4,29.65,ESE,112,0.0,0.0,95,0.00,CLR,,0.00,WeatherDisplay:10.37,2013-03-01 03:16:00,
2013-02-28 22:19:00,39.7,38.4,29.65,ESE,112,0.0,0.0,95,0.00,CLR,,0.00,WeatherDisplay:10.37,2013-03-01 03:19:00,
2013-02-28 22:20:00,39.7,38.4,29.65,ESE,112,0.0,0.0,95,0.00,CLR,,0.00,WeatherDisplay:10.37,2013-03-01 03:20:00,
2013-02-28 22:21:00,39.7,38.4,29.65,ESE,112,0.0,0.0,95,0.00,CLR,,0.00,WeatherDisplay:10.37,2013-03-01 03:21:00,
2013-02-28 22:24:00,39.7,38.4,29.65,ESE,112,0.0,0.5,95,0.00,CLR,,0.00,WeatherDisplay:10.37,2013-03-01 03:24:00,
2013-02-28 22:25:00,39.7,38.4,29.65,East,90,0.0,0.2,95,0.00,CLR,,0.00,WeatherDisplay:10.37,2013-03-01 03:25:00,
2013-02-28 22:26:00,39.6,38.2,29.65,ENE,68,0.0,0.0,95,0.00,CLR,,0.00,WeatherDisplay:10.37,2013-03-01 03:26:00,
2013-02-28 22:29:00,39.7,38.4,29.65,East,90,0.0,0.0,95,0.00,CLR,,0.00,WeatherDisplay:10.37,2013-03-01 03:29:00,
2013-02-28 22:30:00,39.6,38.2,29.65,ENE,68,0.0,0.2,95,0.00,CLR,,0.00,WeatherDisplay:10.37,2013-03-01 03:30:00,
2013-02-28 22:32:00,39.6,38.2,29.65,ENE,68,0.0,0.5,95,0.00,CLR,,0.00,WeatherDisplay:10.37,2013-03-01 03:32:00,
2013-02-28 22:34:00,39.6,38.2,29.65,East,90,1.1,1.1,95,0.00,CLR,,0.00,WeatherDisplay:10.37,2013-03-01 03:34:00,
2013-02-28 22:35:00,39.6,38.2,29.65,East,90,0.0,0.0,95,0.00,CLR,,0.00,WeatherDisplay:10.37,2013-03-01 03:35:00,
2013-02-28 22:36:00,39.6,38.2,29.65,East,90,0.0,0.0,95,0.00,CLR,,0.00,WeatherDisplay:10.37,2013-03-01 03:36:00,
2013-02-28 22:37:00,39.6,38.2,29.65,East,90,0.0,0.0,95,0.00,CLR,,0.00,WeatherDisplay:10.37,2013-03-01 03:37:00,
2013-02-28 22:39:00,39.6,38.2,29.65,ESE,112,0.0,0.0,95,0.00,CLR,,0.00,WeatherDisplay:10.37,2013-03-01 03:39:00,
2013-02-28 22:40:00,39.6,38.2,29.65,East,90,0.0,0.2,95,0.00,CLR,,0.00,WeatherDisplay:10.37,2013-03-01 03:40:00,
2013-02-28 22:41:00,39.6,38.2,29.65,East,90,0.0,0.2,95,0.00,CLR,,0.00,WeatherDisplay:10.37,2013-03-01 03:41:00,
2013-02-28 22:42:00,39.6,38.2,29.65,ENE,68,0.0,0.5,95,0.00,CLR,,0.00,WeatherDisplay:10.37,2013-03-01 03:42:00,
2013-02-28 22:44:00,39.6,38.2,29.65,ESE,112,1.1,0.0,95,0.00,CLR,,0.00,WeatherDisplay:10.37,2013-03-01 03:44:00,
2013-02-28 22:45:00,39.6,38.2,29.65,ESE,112,0.0,0.5,95,0.00,CLR,,0.00,WeatherDisplay:10.37,2013-03-01 03:45:00,
2013-02-28 22:46:00,39.6,38.2,29.65,ESE,112,0.0,0.5,95,0.00,CLR,,0.00,WeatherDisplay:10.37,2013-03-01 03:46:00,
2013-02-28 22:47:00,39.6,38.2,29.65,East,90,0.0,0.0,95,0.00,CLR,,0.00,WeatherDisplay:10.37,2013-03-01 03:47:00,
2013-02-28 22:49:00,39.6,38.2,29.65,East,90,0.0,0.0,95,0.00,CLR,,0.00,WeatherDisplay:10.37,2013-03-01 03:49:00,
2013-02-28 22:51:00,39.4,38.1,29.65,East,90,0.0,0.0,95,0.00,CLR,,0.00,WeatherDisplay:10.37,2013-03-01 03:51:00,
2013-02-28 22:52:00,39.4,38.1,29.65,East,90,0.0,0.0,95,0.00,CLR,,0.00,WeatherDisplay:10.37,2013-03-01 03:52:00,
2013-02-28 22:54:00,39.4,38.1,29.65,East,90,0.0,0.0,95,0.00,CLR,,0.00,WeatherDisplay:10.37,2013-03-01 03:54:00,
2013-02-28 22:56:00,39.4,38.1,29.65,ENE,68,0.0,0.5,95,0.00,CLR,,0.00,WeatherDisplay:10.37,2013-03-01 03:56:00,
2013-02-28 22:57:00,39.4,38.1,29.65,ESE,112,0.0,0.0,95,0.00,CLR,,0.00,WeatherDisplay:10.37,2013-03-01 03:57:00,
2013-02-28 22:59:00,39.4,38.1,29.65,ENE,68,1.1,1.4,95,0.00,CLR,,0.00,WeatherDisplay:10.37,2013-03-01 03:59:00,
2013-02-28 23:01:00,39.4,38.1,29.65,East,90,1.1,0.0,95,0.00,CLR,,0.00,WeatherDisplay:10.37,2013-03-01 04:01:00,
2013-02-28 23:02:00,39.4,38.1,29.65,East,90,0.0,0.0,95,0.00,CLR,,0.00,WeatherDisplay:10.37,2013-03-01 04:02:00,
2013-02-28 23:05:00,39.4,38.3,29.65,East,90,0.0,0.0,96,0.00,CLR,,0.00,WeatherDisplay:10.37,2013-03-01 04:05:00,
2013-02-28 23:06:00,39.2,37.9,29.65,East,90,0.0,0.0,95,0.00,CLR,,0.00,WeatherDisplay:10.37,2013-03-01 04:06:00,
2013-02-28 23:07:00,39.4,38.1,29.65,East,90,0.0,0.0,95,0.00,CLR,,0.00,WeatherDisplay:10.37,2013-03-01 04:07:00,
2013-02-28 23:10:00,39.2,37.9,29.65,East,90,0.0,0.0,95,0.00,CLR,,0.00,WeatherDisplay:10.37,2013-03-01 04:10:00,
2013-02-28 23:11:00,39.2,38.2,29.65,ESE,112,0.0,0.2,96,0.00,CLR,,0.00,WeatherDisplay:10.37,2013-03-01 04:11:00,
2013-02-28 23:12:00,39.2,37.9,29.65,ESE,112,0.0,0.2,95,0.00,CLR,,0.00,WeatherDisplay:10.37,2013-03-01 04:12:00,
2013-02-28 23:13:00,39.4,38.3,29.65,ENE,68,1.1,1.1,96,0.00,CLR,,0.00,WeatherDisplay:10.37,2013-03-01 04:13:00,
2013-02-28 23:15:00,39.2,38.2,29.65,ESE,112,1.4,1.4,96,0.00,CLR,,0.00,WeatherDisplay:10.37,2013-03-01 04:15:00,
2013-02-28 23:16:00,39.2,38.2,29.65,ESE,112,1.1,1.4,96,0.00,CLR,,0.00,WeatherDisplay:10.37,2013-03-01 04:16:00,
2013-02-28 23:17:00,39.2,38.2,29.65,ESE,112,1.1,1.1,96,0.00,CLR,,0.00,WeatherDisplay:10.37,2013-03-01 04:17:00,
2013-02-28 23:18:00,39.2,38.2,29.65,ESE,112,0.0,0.0,96,0.00,CLR,,0.00,WeatherDisplay:10.37,2013-03-01 04:18:00,
2013-02-28 23:20:00,39.2,38.2,29.65,ESE,112,0.5,0.5,96,0.00,CLR,,0.00,WeatherDisplay:10.37,2013-03-01 04:20:00,
2013-02-28 23:21:00,39.2,38.2,29.65,ESE,112,0.0,0.5,96,0.00,CLR,,0.00,WeatherDisplay:10.37,2013-03-01 04:21:00,
2013-02-28 23:22:00,39.2,38.2,29.65,ESE,112,0.0,0.5,96,0.00,CLR,,0.00,WeatherDisplay:10.37,2013-03-01 04:22:00,
2013-02-28 23:23:00,39.2,38.2,29.65,ESE,112,0.0,0.2,96,0.00,CLR,,0.00,WeatherDisplay:10.37,2013-03-01 04:23:00,
2013-02-28 23:26:00,39.2,38.2,29.65,ENE,68,0.0,0.5,96,0.00,CLR,,0.00,WeatherDisplay:10.37,2013-03-01 04:26:00,
2013-02-28 23:27:00,39.2,37.9,29.65,ENE,68,0.0,0.5,95,0.00,CLR,,0.00,WeatherDisplay:10.37,2013-03-01 04:27:00,
2013-02-28 23:28:00,39.2,37.9,29.65,ENE,68,0.0,0.2,95,0.00,CLR,,0.00,WeatherDisplay:10.37,2013-03-01 04:28:00,
2013-02-28 23:31:00,39.2,37.9,29.65,ESE,112,0.0,0.5,95,0.00,CLR,,0.00,WeatherDisplay:10.37,2013-03-01 04:31:00,
2013-02-28 23:32:00,39.2,38.2,29.65,ESE,112,0.0,0.0,96,0.00,CLR,,0.00,WeatherDisplay:10.37,2013-03-01 04:32:00,
2013-02-28 23:33:00,39.2,38.2,29.65,ESE,112,0.0,0.2,96,0.00,CLR,,0.00,WeatherDisplay:10.37,2013-03-01 04:33:00,
2013-02-28 23:36:00,39.0,37.7,29.65,ESE,112,1.1,1.1,95,0.00,CLR,,0.00,WeatherDisplay:10.37,2013-03-01 04:36:00,
2013-02-28 23:37:00,39.0,37.7,29.65,SSE,158,1.1,1.1,95,0.00,CLR,,0.00,WeatherDisplay:10.37,2013-03-01 04:37:00,
2013-02-28 23:38:00,39.0,38.0,29.65,East,90,1.1,1.1,96,0.00,CLR,,0.00,WeatherDisplay:10.37,2013-03-01 04:38:00,
2013-02-28 23:41:00,39.0,38.0,29.65,East,90,1.1,1.4,96,0.00,CLR,,0.00,WeatherDisplay:10.37,2013-03-01 04:41:00,
2013-02-28 23:42:00,39.0,37.7,29.65,ESE,112,1.1,1.1,95,0.00,CLR,,0.00,WeatherDisplay:10.37,2013-03-01 04:42:00,
2013-02-28 23:43:00,39.0,38.0,29.65,SE,135,0.0,0.5,96,0.00,CLR,,0.00,WeatherDisplay:10.37,2013-03-01 04:43:00,
2013-02-28 23:44:00,38.8,37.8,29.65,SE,135,1.1,1.1,96,0.00,CLR,,0.00,WeatherDisplay:10.37,2013-03-01 04:44:00,
2013-02-28 23:46:00,38.8,37.8,29.65,SE,135,1.1,1.1,96,0.00,CLR,,0.00,WeatherDisplay:10.37,2013-03-01 04:46:00,
2013-02-28 23:47:00,38.8,37.5,29.65,SE,135,0.0,0.2,95,0.00,CLR,,0.00,WeatherDisplay:10.37,2013-03-01 04:47:00,
2013-02-28 23:48:00,38.8,37.8,29.65,ESE,112,0.0,0.0,96,0.00,CLR,,0.00,WeatherDisplay:10.37,2013-03-01 04:48:00,
2013-02-28 23:49:00,38.8,37.5,29.65,SE,135,1.1,1.1,95,0.00,CLR,,0.00,WeatherDisplay:10.37,2013-03-01 04:49:00,
2013-02-28 23:51:00,38.8,37.8,29.65,SE,135,1.1,1.1,96,0.00,CLR,,0.00,WeatherDisplay:10.37,2013-03-01 04:51:00,
2013-02-28 23:52:00,38.8,37.5,29.65,ENE,68,1.1,1.1,95,0.00,CLR,,0.00,WeatherDisplay:10.37,2013-03-01 04:52:00,
2013-02-28 23:53:00,38.8,37.5,29.65,ESE,112,2.3,2.4,95,0.00,CLR,,0.00,WeatherDisplay:10.37,2013-03-01 04:53:00,
2013-02-28 23:54:00,38.8,37.5,29.65,East,90,2.3,2.3,95,0.00,CLR,,0.00,WeatherDisplay:10.37,2013-03-01 04:54:00,
2013-02-28 23:56:00,38.8,37.8,29.65,ENE,68,2.3,2.3,96,0.00,CLR,,0.00,WeatherDisplay:10.37,2013-03-01 04:56:00,
2013-02-28 23:57:00,38.8,37.5,29.65,East,90,2.3,2.3,95,0.00,CLR,,0.00,WeatherDisplay:10.37,2013-03-01 04:57:00,
2013-02-28 23:58:00,38.8,37.8,29.65,ESE,112,1.1,1.1,96,0.00,CLR,,0.00,WeatherDisplay:10.37,2013-03-01 04:58:00,
2013-02-28 23:59:00,38.7,37.6,29.65,ESE,112,1.1,1.1,96,0.00,CLR,,0.00,WeatherDisplay:10.37,2013-03-01 04:59:00,